Observation data for McCamey on 01/11/2019      Previous  Date  Next       Current Mesonet Observations  Soil Data  Daily Summary Page  Observations in Plain Language
KMC4 110600Z 16008KT 12/09 A3007 RMK A01 T01220086  RH  079%=      5-min Rain = 0
KMC4 110601Z 16006KT 12/09 A3007 RMK A01 T01220086  RH  079%=      5-min Rain = 0
KMC4 110602Z 17006KT 12/09 A3007 RMK A01 T01220086  RH  079%=      5-min Rain = 0
KMC4 110603Z 16006KT 12/09 A3007 RMK A01 T01220087  RH  079%=      5-min Rain = 0
KMC4 110604Z 16008KT 12/09 A3007 RMK A01 T01210087  RH  079%=      5-min Rain = 0
KMC4 110605Z 16006KT 12/09 A3007 RMK A01 T01210087  RH  079%=      5-min Rain = 0
KMC4 110606Z 16006KT 12/09 A3007 RMK A01 T01210087  RH  080%=      5-min Rain = 0
KMC4 110607Z 16008KT 12/09 A3007 RMK A01 T01210088  RH  080%=      5-min Rain = 0
KMC4 110608Z 18008KT 12/09 A3007 RMK A01 T01210088  RH  080%=      5-min Rain = 0
KMC4 110609Z 17008KT 12/09 A3007 RMK A01 T01210088  RH  081%=      5-min Rain = 0
KMC4 110610Z 18006KT 12/09 A3008 RMK A01 T01210089  RH  081%=      5-min Rain = 0
KMC4 110611Z 19006KT 12/09 A3008 RMK A01 T01200090  RH  082%=      5-min Rain = 0
KMC4 110612Z 18006KT 12/09 A3008 RMK A01 T01190091  RH  083%=      5-min Rain = 0
KMC4 110613Z 19007KT 12/09 A3008 RMK A01 T01190091  RH  083%=      5-min Rain = 0
KMC4 110614Z 18008KT 12/09 A3008 RMK A01 T01190091  RH  083%=      5-min Rain = 0
KMC4 110615Z 18008KT 12/09 A3008 RMK A01 T01180092  RH  084%=      5-min Rain = 0
KMC4 110616Z 17006KT 12/09 A3008 RMK A01 T01180091  RH  084%=      5-min Rain = 0
KMC4 110617Z 17008KT 12/09 A3008 RMK A01 T01180091  RH  084%=      5-min Rain = 0
KMC4 110618Z 17006KT 12/09 A3008 RMK A01 T01180091  RH  083%=      5-min Rain = 0
KMC4 110619Z 17006KT 12/09 A3008 RMK A01 T01180092  RH  084%=      5-min Rain = 0
KMC4 110620Z 17008KT 12/09 A3008 RMK A01 T01180091  RH  084%=      5-min Rain = 0
KMC4 110621Z 18007KT 12/09 A3008 RMK A01 T01180092  RH  084%=      5-min Rain = 0
KMC4 110622Z 18005KT 12/09 A3008 RMK A01 T01180092  RH  084%=      5-min Rain = 0
KMC4 110623Z 17006KT 12/09 A3008 RMK A01 T01170093  RH  085%=      5-min Rain = 0
KMC4 110624Z 17007KT 12/09 A3008 RMK A01 T01170092  RH  085%=      5-min Rain = 0
KMC4 110625Z 17008KT 12/09 A3008 RMK A01 T01170092  RH  085%=      5-min Rain = 0
KMC4 110626Z 17007KT 12/09 A3008 RMK A01 T01170092  RH  085%=      5-min Rain = 0
KMC4 110627Z 18008KT 12/09 A3008 RMK A01 T01170092  RH  085%=      5-min Rain = 0
KMC4 110628Z 18007KT 12/09 A3008 RMK A01 T01170092  RH  085%=      5-min Rain = 0
KMC4 110629Z 18007KT 12/09 A3008 RMK A01 T01170092  RH  085%=      5-min Rain = 0
KMC4 110630Z 18008KT 12/09 A3008 RMK A01 T01170091  RH  084%=      5-min Rain = 0
KMC4 110631Z 18009KT 12/09 A3008 RMK A01 T01170092  RH  084%=      5-min Rain = 0
KMC4 110632Z 17008KT 12/09 A3008 RMK A01 T01180091  RH  084%=      5-min Rain = 0
KMC4 110633Z 17007KT 12/09 A3008 RMK A01 T01180091  RH  084%=      5-min Rain = 0
KMC4 110634Z 18007KT 12/09 A3008 RMK A01 T01180092  RH  084%=      5-min Rain = 0
KMC4 110635Z 18007KT 12/09 A3009 RMK A01 T01170092  RH  085%=      5-min Rain = 0
KMC4 110636Z 18006KT 12/09 A3009 RMK A01 T01170093  RH  085%=      5-min Rain = 0
KMC4 110637Z 18007KT 12/09 A3009 RMK A01 T01170093  RH  085%=      5-min Rain = 0
KMC4 110638Z 18008KT 12/09 A3009 RMK A01 T01170093  RH  085%=      5-min Rain = 0
KMC4 110639Z 19009KT 12/09 A3009 RMK A01 T01170093  RH  085%=      5-min Rain = 0
KMC4 110640Z 18009KT 12/09 A3009 RMK A01 T01170093  RH  086%=      5-min Rain = 0
KMC4 110641Z 18013KT 12/09 A3008 RMK A01 T01160094  RH  086%=      5-min Rain = 0
KMC4 110642Z 18010KT 12/09 A3009 RMK A01 T01160094  RH  086%=      5-min Rain = 0
KMC4 110643Z 18011KT 12/09 A3009 RMK A01 T01150094  RH  087%=      5-min Rain = 0
KMC4 110644Z 18010KT 12/10 A3009 RMK A01 T01150095  RH  087%=      5-min Rain = 0
KMC4 110645Z 17011KT 11/10 A3009 RMK A01 T01140095  RH  088%=      5-min Rain = 0
KMC4 110646Z 18010KT 11/10 A3009 RMK A01 T01140095  RH  088%=      5-min Rain = 0
KMC4 110647Z 17011KT 11/10 A3008 RMK A01 T01140095  RH  088%=      5-min Rain = 0
KMC4 110648Z 17011KT 11/10 A3008 RMK A01 T01140095  RH  088%=      5-min Rain = 0
KMC4 110649Z 17011KT 11/10 A3008 RMK A01 T01130095  RH  088%=      5-min Rain = 0
KMC4 110650Z 17009KT 11/10 A3008 RMK A01 T01140096  RH  089%=      5-min Rain = 0
KMC4 110651Z 17009KT 11/10 A3008 RMK A01 T01130095  RH  089%=      5-min Rain = 0
KMC4 110652Z 17010KT 11/10 A3008 RMK A01 T01130096  RH  089%=      5-min Rain = 0.01
KMC4 110653Z 16011KT 11/10 A3008 RMK A01 T01130095  RH  089%=      5-min Rain = 0
KMC4 110654Z 16011KT 11/10 A3008 RMK A01 T01130095  RH  089%=      5-min Rain = 0
KMC4 110655Z 17013KT 11/10 A3007 RMK A01 T01130095  RH  089%=      5-min Rain = 0
KMC4 110656Z 16012KT 11/10 A3007 RMK A01 T01130095  RH  089%=      5-min Rain = 0
KMC4 110657Z 17010KT 11/10 A3007 RMK A01 T01130095  RH  089%=      5-min Rain = 0
KMC4 110658Z 17010KT 11/10 A3007 RMK A01 T01120096  RH  089%=      5-min Rain = 0
KMC4 110659Z 18010KT 11/10 A3007 RMK A01 T01120096  RH  090%=      5-min Rain = 0
KMC4 110700Z 16011KT 11/10 A3007 RMK A01 T01120096  RH  090%=      5-min Rain = 0
KMC4 110701Z 16011KT 11/10 A3007 RMK A01 T01120096  RH  090%=      5-min Rain = 0
KMC4 110702Z 16010KT 11/10 A3007 RMK A01 T01120096  RH  090%=      5-min Rain = 0
KMC4 110703Z 16011KT 11/10 A3007 RMK A01 T01110097  RH  091%=      5-min Rain = 0
KMC4 110704Z 16009KT 11/10 A3007 RMK A01 T01110097  RH  091%=      5-min Rain = 0
KMC4 110705Z 15010KT 11/10 A3007 RMK A01 T01100097  RH  091%=      5-min Rain = 0
KMC4 110706Z 16010KT 11/10 A3007 RMK A01 T01100097  RH  092%=      5-min Rain = 0
KMC4 110707Z 16007KT 11/10 A3007 RMK A01 T01100097  RH  092%=      5-min Rain = 0
KMC4 110708Z 16008G13KT 11/10 A3007 RMK A01 T01100097  RH  092%=      5-min Rain = 0
KMC4 110709Z 16011KT 11/10 A3007 RMK A01 T01090098  RH  092%=      5-min Rain = 0
KMC4 110710Z 16009KT 11/10 A3007 RMK A01 T01090097  RH  092%=      5-min Rain = 0.01
KMC4 110711Z 16008KT 11/10 A3007 RMK A01 T01090098  RH  092%=      5-min Rain = 0
KMC4 110712Z 16009KT 11/10 A3007 RMK A01 T01090098  RH  093%=      5-min Rain = 0
KMC4 110713Z 16010KT 11/10 A3007 RMK A01 T01090098  RH  093%=      5-min Rain = 0
KMC4 110714Z 16009KT 11/10 A3007 RMK A01 T01090098  RH  093%=      5-min Rain = 0
KMC4 110715Z 16007KT 11/10 A3006 RMK A01 T01090098  RH  093%=      5-min Rain = 0
KMC4 110716Z 15008KT 11/10 A3006 RMK A01 T01080098  RH  093%=      5-min Rain = 0
KMC4 110717Z 15008KT 11/10 A3006 RMK A01 T01080098  RH  093%=      5-min Rain = 0
KMC4 110718Z 15008KT 11/10 A3006 RMK A01 T01080098  RH  094%=      5-min Rain = 0
KMC4 110719Z 15007KT 11/10 A3006 RMK A01 T01080098  RH  094%=      5-min Rain = 0
KMC4 110720Z 15008KT 11/10 A3006 RMK A01 T01080099  RH  094%=      5-min Rain = 0
KMC4 110721Z 15007KT 11/10 A3006 RMK A01 T01080098  RH  094%=      5-min Rain = 0
KMC4 110722Z 15008KT 11/10 A3006 RMK A01 T01080098  RH  094%=      5-min Rain = 0
KMC4 110723Z 15009KT 11/10 A3005 RMK A01 T01080099  RH  094%=      5-min Rain = 0
KMC4 110724Z 15008KT 11/10 A3005 RMK A01 T01080099  RH  094%=      5-min Rain = 0
KMC4 110725Z 15008KT 11/10 A3005 RMK A01 T01070099  RH  094%=      5-min Rain = 0
KMC4 110726Z 15006KT 11/10 A3005 RMK A01 T01070099  RH  094%=      5-min Rain = 0
KMC4 110727Z 16007KT 11/10 A3006 RMK A01 T01070099  RH  095%=      5-min Rain = 0
KMC4 110728Z 17008KT 11/10 A3006 RMK A01 T01070099  RH  095%=      5-min Rain = 0
KMC4 110729Z 17006KT 11/10 A3006 RMK A01 T01070098  RH  095%=      5-min Rain = 0
KMC4 110730Z 17008KT 11/10 A3006 RMK A01 T01070099  RH  095%=      5-min Rain = 0
KMC4 110731Z 17008KT 11/10 A3006 RMK A01 T01060099  RH  095%=      5-min Rain = 0
KMC4 110732Z 16008KT 11/10 A3006 RMK A01 T01070099  RH  095%=      5-min Rain = 0
KMC4 110733Z 16007KT 11/10 A3006 RMK A01 T01070099  RH  095%=      5-min Rain = 0
KMC4 110734Z 16008KT 11/10 A3006 RMK A01 T01070099  RH  095%=      5-min Rain = 0
KMC4 110735Z 16007KT 11/10 A3006 RMK A01 T01070100  RH  095%=      5-min Rain = 0
KMC4 110736Z 16006KT 11/10 A3006 RMK A01 T01070099  RH  095%=      5-min Rain = 0
KMC4 110737Z 16006KT 11/10 A3006 RMK A01 T01060099  RH  095%=      5-min Rain = 0
KMC4 110738Z 15005KT 11/10 A3006 RMK A01 T01070100  RH  095%=      5-min Rain = 0
KMC4 110739Z 15006KT 11/10 A3006 RMK A01 T01060099  RH  095%=      5-min Rain = 0
KMC4 110740Z 14005KT 11/10 A3006 RMK A01 T01060099  RH  096%=      5-min Rain = 0
KMC4 110741Z 16005KT 11/10 A3006 RMK A01 T01060099  RH  096%=      5-min Rain = 0
KMC4 110742Z 15005KT 11/10 A3006 RMK A01 T01060099  RH  096%=      5-min Rain = 0
KMC4 110743Z 15006KT 11/10 A3006 RMK A01 T01060099  RH  096%=      5-min Rain = 0
KMC4 110744Z 14005KT 11/10 A3006 RMK A01 T01060099  RH  096%=      5-min Rain = 0
KMC4 110745Z 13005KT 11/10 A3006 RMK A01 T01060099  RH  096%=      5-min Rain = 0
KMC4 110746Z 13006KT 11/10 A3006 RMK A01 T01060099  RH  096%=      5-min Rain = 0
KMC4 110747Z 13005KT 11/10 A3006 RMK A01 T01060099  RH  096%=      5-min Rain = 0
KMC4 110748Z 14006KT 11/10 A3006 RMK A01 T01060099  RH  096%=      5-min Rain = 0
KMC4 110749Z 14006KT 11/10 A3006 RMK A01 T01050099  RH  096%=      5-min Rain = 0
KMC4 110750Z 15005KT 11/10 A3006 RMK A01 T01060099  RH  096%=      5-min Rain = 0
KMC4 110751Z 15006KT 11/10 A3006 RMK A01 T01060099  RH  095%=      5-min Rain = 0
KMC4 110752Z 16007KT 11/10 A3006 RMK A01 T01060099  RH  095%=      5-min Rain = 0
KMC4 110753Z 16007KT 11/10 A3006 RMK A01 T01060099  RH  095%=      5-min Rain = 0
KMC4 110754Z 16007KT 11/10 A3006 RMK A01 T01060099  RH  095%=      5-min Rain = 0
KMC4 110755Z 16007KT 11/10 A3006 RMK A01 T01070099  RH  095%=      5-min Rain = 0
KMC4 110756Z 16007KT 11/10 A3006 RMK A01 T01070098  RH  095%=      5-min Rain = 0
KMC4 110757Z 16007KT 11/10 A3006 RMK A01 T01070098  RH  094%=      5-min Rain = 0
KMC4 110758Z 16006KT 11/10 A3006 RMK A01 T01070099  RH  094%=      5-min Rain = 0
KMC4 110759Z 17006KT 11/10 A3007 RMK A01 T01070098  RH  094%=      5-min Rain = 0
KMC4 110800Z 17005KT 11/10 A3007 RMK A01 T01070098  RH  094%=      5-min Rain = 0
KMC4 110801Z 17006KT 11/10 A3007 RMK A01 T01070098  RH  094%=      5-min Rain = 0
KMC4 110802Z 17007KT 11/10 A3007 RMK A01 T01070098  RH  094%=      5-min Rain = 0
KMC4 110803Z 17006KT 11/10 A3007 RMK A01 T01070098  RH  094%=      5-min Rain = 0
KMC4 110804Z 16005KT 11/10 A3007 RMK A01 T01070098  RH  094%=      5-min Rain = 0
KMC4 110805Z 15006KT 11/10 A3006 RMK A01 T01070098  RH  094%=      5-min Rain = 0
KMC4 110806Z 14005KT 11/10 A3006 RMK A01 T01070098  RH  094%=      5-min Rain = 0
KMC4 110807Z 14005KT 11/10 A3006 RMK A01 T01070098  RH  094%=      5-min Rain = 0
KMC4 110808Z 14005KT 11/10 A3006 RMK A01 T01070098  RH  094%=      5-min Rain = 0.01
KMC4 110809Z 16005KT 11/10 A3006 RMK A01 T01070098  RH  095%=      5-min Rain = 0
KMC4 110810Z 16005KT 11/10 A3007 RMK A01 T01070098  RH  095%=      5-min Rain = 0
KMC4 110811Z 16006KT 11/10 A3007 RMK A01 T01070098  RH  095%=      5-min Rain = 0
KMC4 110812Z 16006KT 11/10 A3007 RMK A01 T01070098  RH  095%=      5-min Rain = 0
KMC4 110813Z 16005KT 11/10 A3007 RMK A01 T01070099  RH  095%=      5-min Rain = 0
KMC4 110814Z 16005KT 11/10 A3007 RMK A01 T01070099  RH  095%=      5-min Rain = 0
KMC4 110815Z 15006KT 11/10 A3007 RMK A01 T01070099  RH  095%=      5-min Rain = 0
KMC4 110816Z 15005KT 11/10 A3007 RMK A01 T01070099  RH  095%=      5-min Rain = 0
KMC4 110817Z 15006KT 11/10 A3007 RMK A01 T01070099  RH  095%=      5-min Rain = 0
KMC4 110818Z 15005KT 11/10 A3007 RMK A01 T01060099  RH  095%=      5-min Rain = 0
KMC4 110819Z 16006KT 11/10 A3007 RMK A01 T01060099  RH  095%=      5-min Rain = 0
KMC4 110820Z 15007KT 11/10 A3007 RMK A01 T01060099  RH  095%=      5-min Rain = 0.01
KMC4 110821Z 15008KT 11/10 A3007 RMK A01 T01060099  RH  095%=      5-min Rain = 0
KMC4 110822Z 15007KT 11/10 A3007 RMK A01 T01060099  RH  095%=      5-min Rain = 0
KMC4 110823Z 15007KT 11/10 A3007 RMK A01 T01060099  RH  095%=      5-min Rain = 0
KMC4 110824Z 16006KT 11/10 A3007 RMK A01 T01060099  RH  095%=      5-min Rain = 0
KMC4 110825Z 16008KT 11/10 A3007 RMK A01 T01060099  RH  096%=      5-min Rain = 0
KMC4 110826Z 16007KT 11/10 A3007 RMK A01 T01060099  RH  096%=      5-min Rain = 0
KMC4 110827Z 16006KT 11/10 A3007 RMK A01 T01060099  RH  096%=      5-min Rain = 0
KMC4 110828Z 16006KT 11/10 A3007 RMK A01 T01060099  RH  096%=      5-min Rain = 0
KMC4 110829Z 17006KT 11/10 A3007 RMK A01 T01060099  RH  096%=      5-min Rain = 0
KMC4 110830Z 18006KT 11/10 A3008 RMK A01 T01060099  RH  096%=      5-min Rain = 0
KMC4 110831Z 17005KT 11/10 A3008 RMK A01 T01060099  RH  096%=      5-min Rain = 0
KMC4 110832Z 17005KT 11/10 A3008 RMK A01 T01060099  RH  096%=      5-min Rain = 0
KMC4 110833Z 17006KT 11/10 A3008 RMK A01 T01060099  RH  096%=      5-min Rain = 0
KMC4 110834Z 18005KT 11/10 A3008 RMK A01 T01060100  RH  096%=      5-min Rain = 0
KMC4 110835Z 18006KT 11/10 A3008 RMK A01 T01060099  RH  096%=      5-min Rain = 0
KMC4 110836Z 17007KT 11/10 A3007 RMK A01 T01060099  RH  096%=      5-min Rain = 0
KMC4 110837Z 17006KT 11/10 A3007 RMK A01 T01060099  RH  096%=      5-min Rain = 0
KMC4 110838Z 17006KT 11/10 A3007 RMK A01 T01060100  RH  096%=      5-min Rain = 0.01
KMC4 110839Z 18006KT 11/10 A3007 RMK A01 T01060099  RH  096%=      5-min Rain = 0
KMC4 110840Z 18006KT 11/10 A3008 RMK A01 T01060100  RH  096%=      5-min Rain = 0
KMC4 110841Z 17006KT 11/10 A3007 RMK A01 T01060100  RH  096%=      5-min Rain = 0
KMC4 110842Z 17006KT 11/10 A3007 RMK A01 T01060100  RH  096%=      5-min Rain = 0
KMC4 110843Z 16006KT 11/10 A3006 RMK A01 T01060100  RH  096%=      5-min Rain = 0
KMC4 110844Z 15005KT 11/10 A3006 RMK A01 T01060100  RH  096%=      5-min Rain = 0
KMC4 110845Z 14005KT 11/10 A3006 RMK A01 T01060100  RH  096%=      5-min Rain = 0
KMC4 110846Z 15006KT 11/10 A3006 RMK A01 T01060100  RH  096%=      5-min Rain = 0
KMC4 110847Z 16006KT 11/10 A3006 RMK A01 T01060100  RH  096%=      5-min Rain = 0.01
KMC4 110848Z 16005KT 11/10 A3006 RMK A01 T01060100  RH  096%=      5-min Rain = 0
KMC4 110849Z 18005KT 11/10 A3006 RMK A01 T01060100  RH  096%=      5-min Rain = 0
KMC4 110850Z 18005KT 11/10 A3006 RMK A01 T01060100  RH  096%=      5-min Rain = 0.01
KMC4 110851Z 18005KT 11/10 A3006 RMK A01 T01050100  RH  096%=      5-min Rain = 0
KMC4 110852Z 17004KT 11/10 A3006 RMK A01 T01060100  RH  096%=      5-min Rain = 0
KMC4 110853Z 17005KT 11/10 A3006 RMK A01 T01060100  RH  096%=      5-min Rain = 0
KMC4 110854Z 17005KT 11/10 A3006 RMK A01 T01060100  RH  096%=      5-min Rain = 0
KMC4 110855Z 17005KT 11/10 A3006 RMK A01 T01060100  RH  096%=      5-min Rain = 0
KMC4 110856Z 17006KT 11/10 A3006 RMK A01 T01060100  RH  096%=      5-min Rain = 0
KMC4 110857Z 17005KT 11/10 A3006 RMK A01 T01060100  RH  096%=      5-min Rain = 0
KMC4 110858Z 17007KT 11/10 A3006 RMK A01 T01060100  RH  096%=      5-min Rain = 0
KMC4 110859Z 17006KT 11/10 A3006 RMK A01 T01060100  RH  096%=      5-min Rain = 0
KMC4 110900Z 17007KT 11/10 A3006 RMK A01 T01060100  RH  096%=      5-min Rain = 0
KMC4 110901Z 17006KT 11/10 A3005 RMK A01 T01060100  RH  096%=      5-min Rain = 0
KMC4 110902Z 17006KT 11/10 A3005 RMK A01 T01060100  RH  096%=      5-min Rain = 0
KMC4 110903Z 17007KT 11/10 A3005 RMK A01 T01060100  RH  096%=      5-min Rain = 0
KMC4 110904Z 16006KT 11/10 A3005 RMK A01 T01060100  RH  096%=      5-min Rain = 0
KMC4 110905Z 17007KT 11/10 A3005 RMK A01 T01060100  RH  096%=      5-min Rain = 0
KMC4 110906Z 17006KT 11/10 A3005 RMK A01 T01060100  RH  096%=      5-min Rain = 0
KMC4 110907Z 17006KT 11/10 A3005 RMK A01 T01060100  RH  096%=      5-min Rain = 0
KMC4 110908Z 17006KT 11/10 A3005 RMK A01 T01060100  RH  096%=      5-min Rain = 0
KMC4 110909Z 17006KT 11/10 A3005 RMK A01 T01060100  RH  096%=      5-min Rain = 0
KMC4 110910Z 17006KT 11/10 A3005 RMK A01 T01060100  RH  096%=      5-min Rain = 0
KMC4 110911Z 17005KT 11/10 A3005 RMK A01 T01060100  RH  096%=      5-min Rain = 0
KMC4 110912Z 17004KT 11/10 A3005 RMK A01 T01060100  RH  096%=      5-min Rain = 0
KMC4 110913Z 17003KT 11/10 A3005 RMK A01 T01060100  RH  096%=      5-min Rain = 0
KMC4 110914Z 18003KT 11/10 A3006 RMK A01 T01060100  RH  096%=      5-min Rain = 0
KMC4 110915Z 17004KT 11/10 A3006 RMK A01 T01060100  RH  096%=      5-min Rain = 0
KMC4 110916Z 18005KT 11/10 A3006 RMK A01 T01060100  RH  096%=      5-min Rain = 0
KMC4 110917Z 17006KT 11/10 A3006 RMK A01 T01060100  RH  096%=      5-min Rain = 0
KMC4 110918Z 18005KT 11/10 A3006 RMK A01 T01060100  RH  096%=      5-min Rain = 0
KMC4 110919Z 18005KT 11/10 A3006 RMK A01 T01060100  RH  096%=      5-min Rain = 0
KMC4 110920Z 19005KT 11/10 A3006 RMK A01 T01060100  RH  096%=      5-min Rain = 0
KMC4 110921Z 18007KT 11/10 A3006 RMK A01 T01060100  RH  096%=      5-min Rain = 0
KMC4 110922Z 18007KT 11/10 A3006 RMK A01 T01060100  RH  096%=      5-min Rain = 0
KMC4 110923Z 17007KT 11/10 A3006 RMK A01 T01060100  RH  096%=      5-min Rain = 0
KMC4 110924Z 17008KT 11/10 A3006 RMK A01 T01060100  RH  096%=      5-min Rain = 0
KMC4 110925Z 17007KT 11/10 A3005 RMK A01 T01060100  RH  096%=      5-min Rain = 0
KMC4 110926Z 17008KT 11/10 A3005 RMK A01 T01060100  RH  096%=      5-min Rain = 0
KMC4 110927Z 16006KT 11/10 A3005 RMK A01 T01060100  RH  096%=      5-min Rain = 0
KMC4 110928Z 17006KT 11/10 A3005 RMK A01 T01060100  RH  096%=      5-min Rain = 0
KMC4 110929Z 17007KT 11/10 A3005 RMK A01 T01060100  RH  096%=      5-min Rain = 0
KMC4 110930Z 17007KT 11/10 A3005 RMK A01 T01060100  RH  096%=      5-min Rain = 0
KMC4 110931Z 17007KT 11/10 A3005 RMK A01 T01060100  RH  096%=      5-min Rain = 0
KMC4 110932Z 17007KT 11/10 A3005 RMK A01 T01060100  RH  096%=      5-min Rain = 0
KMC4 110933Z 17007KT 11/10 A3005 RMK A01 T01060100  RH  096%=      5-min Rain = 0
KMC4 110934Z 17007KT 11/10 A3005 RMK A01 T01060100  RH  096%=      5-min Rain = 0
KMC4 110935Z 16006KT 11/10 A3005 RMK A01 T01060100  RH  096%=      5-min Rain = 0
KMC4 110936Z 16007KT 11/10 A3005 RMK A01 T01060099  RH  096%=      5-min Rain = 0
KMC4 110937Z 17007KT 11/10 A3005 RMK A01 T01060099  RH  096%=      5-min Rain = 0
KMC4 110938Z 17006KT 11/10 A3005 RMK A01 T01060099  RH  096%=      5-min Rain = 0
KMC4 110939Z 16007KT 11/10 A3005 RMK A01 T01060099  RH  096%=      5-min Rain = 0
KMC4 110940Z 17006KT 11/10 A3005 RMK A01 T01060100  RH  096%=      5-min Rain = 0
KMC4 110941Z 17005KT 11/10 A3005 RMK A01 T01060099  RH  096%=      5-min Rain = 0
KMC4 110942Z 17005KT 11/10 A3005 RMK A01 T01060100  RH  096%=      5-min Rain = 0
KMC4 110943Z 18005KT 11/10 A3005 RMK A01 T01060099  RH  096%=      5-min Rain = 0
KMC4 110944Z 17004KT 11/10 A3005 RMK A01 T01060100  RH  096%=      5-min Rain = 0
KMC4 110945Z 16004KT 11/10 A3004 RMK A01 T01060100  RH  096%=      5-min Rain = 0
KMC4 110946Z 16005KT 11/10 A3004 RMK A01 T01060100  RH  096%=      5-min Rain = 0
KMC4 110947Z 16005KT 11/10 A3004 RMK A01 T01060100  RH  096%=      5-min Rain = 0
KMC4 110948Z 16006KT 11/10 A3004 RMK A01 T01060100  RH  096%=      5-min Rain = 0
KMC4 110949Z 16007KT 11/10 A3004 RMK A01 T01060100  RH  096%=      5-min Rain = 0
KMC4 110950Z 16008KT 11/10 A3004 RMK A01 T01060100  RH  096%=      5-min Rain = 0
KMC4 110951Z 17008KT 11/10 A3004 RMK A01 T01070100  RH  096%=      5-min Rain = 0
KMC4 110952Z 17008KT 11/10 A3004 RMK A01 T01070100  RH  095%=      5-min Rain = 0
KMC4 110953Z 16009KT 11/10 A3004 RMK A01 T01080100  RH  095%=      5-min Rain = 0
KMC4 110954Z 16008KT 11/10 A3004 RMK A01 T01080100  RH  095%=      5-min Rain = 0
KMC4 110955Z 15008KT 11/10 A3003 RMK A01 T01080100  RH  095%=      5-min Rain = 0
KMC4 110956Z 15007KT 11/10 A3003 RMK A01 T01080100  RH  094%=      5-min Rain = 0
KMC4 110957Z 15007KT 11/10 A3003 RMK A01 T01080100  RH  094%=      5-min Rain = 0
KMC4 110958Z 15006KT 11/10 A3003 RMK A01 T01080100  RH  094%=      5-min Rain = 0
KMC4 110959Z 15006KT 11/10 A3003 RMK A01 T01080099  RH  094%=      5-min Rain = 0
KMC4 111000Z 14007KT 11/10 A3002 RMK A01 T01080100  RH  094%=      5-min Rain = 0
KMC4 111001Z 13007KT 11/10 A3002 RMK A01 T01090100  RH  094%=      5-min Rain = 0
KMC4 111002Z 13007KT 11/10 A3002 RMK A01 T01080100  RH  094%=      5-min Rain = 0
KMC4 111003Z 13006KT 11/10 A3002 RMK A01 T01080100  RH  095%=      5-min Rain = 0
KMC4 111004Z 13006KT 11/10 A3001 RMK A01 T01080100  RH  095%=      5-min Rain = 0
KMC4 111005Z 12005KT 11/10 A3002 RMK A01 T01080100  RH  095%=      5-min Rain = 0
KMC4 111006Z 13005KT 11/10 A3002 RMK A01 T01070099  RH  095%=      5-min Rain = 0
KMC4 111007Z 13006KT 11/10 A3002 RMK A01 T01080100  RH  095%=      5-min Rain = 0
KMC4 111008Z 14006KT 11/10 A3002 RMK A01 T01080100  RH  095%=      5-min Rain = 0
KMC4 111009Z 14006KT 11/10 A3002 RMK A01 T01070100  RH  095%=      5-min Rain = 0
KMC4 111010Z 14006KT 11/10 A3002 RMK A01 T01070100  RH  095%=      5-min Rain = 0
KMC4 111011Z 15006KT 11/10 A3002 RMK A01 T01070100  RH  095%=      5-min Rain = 0
KMC4 111012Z 15005KT 11/10 A3002 RMK A01 T01070100  RH  095%=      5-min Rain = 0
KMC4 111013Z 15006KT 11/10 A3002 RMK A01 T01070100  RH  095%=      5-min Rain = 0
KMC4 111014Z 15005KT 11/10 A3002 RMK A01 T01070100  RH  095%=      5-min Rain = 0
KMC4 111015Z 15005KT 11/10 A3001 RMK A01 T01070100  RH  095%=      5-min Rain = 0
KMC4 111016Z 14004KT 11/10 A3001 RMK A01 T01070100  RH  095%=      5-min Rain = 0
KMC4 111017Z 14004KT 11/10 A3001 RMK A01 T01070100  RH  096%=      5-min Rain = 0
KMC4 111018Z 15005KT 11/10 A3001 RMK A01 T01070100  RH  096%=      5-min Rain = 0
KMC4 111019Z 15005KT 11/10 A3001 RMK A01 T01060100  RH  096%=      5-min Rain = 0
KMC4 111020Z 14005KT 11/10 A3001 RMK A01 T01070100  RH  096%=      5-min Rain = 0
KMC4 111021Z 14005KT 11/10 A3001 RMK A01 T01070100  RH  096%=      5-min Rain = 0
KMC4 111022Z 15005KT 11/10 A3001 RMK A01 T01070100  RH  096%=      5-min Rain = 0
KMC4 111023Z 15006KT 11/10 A3001 RMK A01 T01070100  RH  096%=      5-min Rain = 0
KMC4 111024Z 15006KT 11/10 A3001 RMK A01 T01070100  RH  096%=      5-min Rain = 0
KMC4 111025Z 14006KT 11/10 A3001 RMK A01 T01070100  RH  095%=      5-min Rain = 0
KMC4 111026Z 15007KT 11/10 A3001 RMK A01 T01070100  RH  095%=      5-min Rain = 0
KMC4 111027Z 14006KT 11/10 A3001 RMK A01 T01070100  RH  095%=      5-min Rain = 0
KMC4 111028Z 14007KT 11/10 A3001 RMK A01 T01070100  RH  095%=      5-min Rain = 0
KMC4 111029Z 15006KT 11/10 A3001 RMK A01 T01070100  RH  095%=      5-min Rain = 0
KMC4 111030Z 15007KT 11/10 A3001 RMK A01 T01070100  RH  095%=      5-min Rain = 0
KMC4 111031Z 14008KT 11/10 A3001 RMK A01 T01060099  RH  095%=      5-min Rain = 0
KMC4 111032Z 14008KT 11/10 A3001 RMK A01 T01070100  RH  095%=      5-min Rain = 0
KMC4 111033Z 14007KT 11/10 A3001 RMK A01 T01070099  RH  095%=      5-min Rain = 0
KMC4 111034Z 14008KT 11/10 A30 RMK A01 T01070099  RH  095%=      5-min Rain = 0
KMC4 111035Z 13009KT 11/10 A30 RMK A01 T01070099  RH  095%=      5-min Rain = 0
KMC4 111036Z 14008KT 11/10 A30 RMK A01 T01070099  RH  095%=      5-min Rain = 0
KMC4 111037Z 14008KT 11/10 A30 RMK A01 T01070099  RH  095%=      5-min Rain = 0
KMC4 111038Z 13008KT 11/10 A30 RMK A01 T01070099  RH  095%=      5-min Rain = 0
KMC4 111039Z 14009KT 11/10 A30 RMK A01 T01070099  RH  095%=      5-min Rain = 0
KMC4 111040Z 13010KT 11/10 A2999 RMK A01 T01070099  RH  095%=      5-min Rain = 0
KMC4 111041Z 13009KT 11/10 A2999 RMK A01 T01070099  RH  095%=      5-min Rain = 0
KMC4 111042Z 13009KT 11/10 A2999 RMK A01 T01070099  RH  095%=      5-min Rain = 0
KMC4 111043Z 13010KT 11/10 A2999 RMK A01 T01070099  RH  095%=      5-min Rain = 0
KMC4 111044Z 13008KT 11/10 A2999 RMK A01 T01070099  RH  095%=      5-min Rain = 0
KMC4 111045Z 12009KT 11/10 A2999 RMK A01 T01070099  RH  095%=      5-min Rain = 0
KMC4 111046Z 12007KT 11/10 A2999 RMK A01 T01070099  RH  095%=      5-min Rain = 0
KMC4 111047Z 12009KT 11/10 A2999 RMK A01 T01060099  RH  095%=      5-min Rain = 0
KMC4 111048Z 13009KT 11/10 A2999 RMK A01 T01060099  RH  095%=      5-min Rain = 0
KMC4 111049Z 13008KT 11/10 A2999 RMK A01 T01060099  RH  095%=      5-min Rain = 0
KMC4 111050Z 13009KT 11/10 A2999 RMK A01 T01060099  RH  095%=      5-min Rain = 0
KMC4 111051Z 13010KT 11/10 A2999 RMK A01 T01060099  RH  095%=      5-min Rain = 0
KMC4 111052Z 14009KT 11/10 A30 RMK A01 T01060099  RH  095%=      5-min Rain = 0
KMC4 111053Z 14009KT 11/10 A2999 RMK A01 T01060099  RH  095%=      5-min Rain = 0
KMC4 111054Z 14009KT 11/10 A2999 RMK A01 T01060099  RH  095%=      5-min Rain = 0
KMC4 111055Z 15008KT 11/10 A2999 RMK A01 T01060099  RH  095%=      5-min Rain = 0
KMC4 111056Z 15009KT 11/10 A2999 RMK A01 T01070099  RH  095%=      5-min Rain = 0
KMC4 111057Z 14009KT 11/10 A2999 RMK A01 T01070099  RH  095%=      5-min Rain = 0
KMC4 111058Z 14008KT 11/10 A2999 RMK A01 T01070099  RH  095%=      5-min Rain = 0
KMC4 111059Z 14009KT 11/10 A2999 RMK A01 T01070098  RH  095%=      5-min Rain = 0
KMC4 111100Z 14011KT 11/10 A2999 RMK A01 T01070099  RH  095%=      5-min Rain = 0
KMC4 111101Z 14009KT 11/10 A2999 RMK A01 T01070099  RH  095%=      5-min Rain = 0
KMC4 111102Z 14010KT 11/10 A2999 RMK A01 T01070099  RH  095%=      5-min Rain = 0
KMC4 111103Z 14010KT 11/10 A2999 RMK A01 T01070099  RH  095%=      5-min Rain = 0
KMC4 111104Z 14010KT 11/10 A2999 RMK A01 T01070098  RH  094%=      5-min Rain = 0
KMC4 111105Z 14010KT 11/10 A2999 RMK A01 T01070098  RH  094%=      5-min Rain = 0
KMC4 111106Z 14011KT 11/10 A2998 RMK A01 T01070099  RH  094%=      5-min Rain = 0
KMC4 111107Z 13009KT 11/10 A2998 RMK A01 T01070098  RH  094%=      5-min Rain = 0
KMC4 111108Z 13010KT 11/10 A2998 RMK A01 T01070098  RH  094%=      5-min Rain = 0
KMC4 111109Z 13010KT 11/10 A2998 RMK A01 T01070099  RH  094%=      5-min Rain = 0
KMC4 111110Z 13010KT 11/10 A2998 RMK A01 T01070098  RH  094%=      5-min Rain = 0
KMC4 111111Z 13009KT 11/10 A2998 RMK A01 T01070099  RH  094%=      5-min Rain = 0
KMC4 111112Z 13009KT 11/10 A2998 RMK A01 T01070098  RH  094%=      5-min Rain = 0
KMC4 111113Z 13010KT 11/10 A2998 RMK A01 T01070099  RH  095%=      5-min Rain = 0
KMC4 111114Z 13009KT 11/10 A2998 RMK A01 T01070099  RH  095%=      5-min Rain = 0
KMC4 111115Z 12009KT 11/10 A2998 RMK A01 T01070099  RH  095%=      5-min Rain = 0
KMC4 111116Z 13010KT 11/10 A2998 RMK A01 T01070099  RH  095%=      5-min Rain = 0
KMC4 111117Z 13009KT 11/10 A2998 RMK A01 T01070099  RH  095%=      5-min Rain = 0
KMC4 111118Z 13009KT 11/10 A2998 RMK A01 T01070099  RH  095%=      5-min Rain = 0
KMC4 111119Z 13009KT 11/10 A2998 RMK A01 T01070099  RH  095%=      5-min Rain = 0
KMC4 111120Z 13010KT 11/10 A2998 RMK A01 T01070099  RH  095%=      5-min Rain = 0
KMC4 111121Z 13010KT 11/10 A2998 RMK A01 T01070099  RH  095%=      5-min Rain = 0
KMC4 111122Z 14010KT 11/10 A2998 RMK A01 T01070099  RH  095%=      5-min Rain = 0
KMC4 111123Z 14009KT 11/10 A2998 RMK A01 T01070099  RH  095%=      5-min Rain = 0
KMC4 111124Z 14009KT 11/10 A2999 RMK A01 T01070099  RH  095%=      5-min Rain = 0
KMC4 111125Z 14008KT 11/10 A2999 RMK A01 T01070099  RH  095%=      5-min Rain = 0
KMC4 111126Z 14009KT 11/10 A2999 RMK A01 T01070099  RH  095%=      5-min Rain = 0
KMC4 111127Z 15008KT 11/10 A2999 RMK A01 T01070099  RH  095%=      5-min Rain = 0
KMC4 111128Z 15009KT 11/10 A2999 RMK A01 T01070099  RH  095%=      5-min Rain = 0
KMC4 111129Z 14009KT 11/10 A2999 RMK A01 T01070099  RH  095%=      5-min Rain = 0
KMC4 111130Z 15009KT 11/10 A2999 RMK A01 T01080099  RH  095%=      5-min Rain = 0
KMC4 111131Z 15009KT 11/10 A2999 RMK A01 T01070099  RH  094%=      5-min Rain = 0
KMC4 111132Z 16009KT 11/10 A2999 RMK A01 T01070099  RH  094%=      5-min Rain = 0
KMC4 111133Z 16009KT 11/10 A2999 RMK A01 T01080099  RH  094%=      5-min Rain = 0
KMC4 111134Z 15008KT 11/10 A2999 RMK A01 T01080099  RH  094%=      5-min Rain = 0
KMC4 111135Z 15008KT 11/10 A2999 RMK A01 T01080099  RH  094%=      5-min Rain = 0
KMC4 111136Z 15007KT 11/10 A2999 RMK A01 T01080099  RH  094%=      5-min Rain = 0
KMC4 111137Z 14007KT 11/10 A2999 RMK A01 T01080099  RH  094%=      5-min Rain = 0
KMC4 111138Z 14009KT 11/10 A2999 RMK A01 T01080099  RH  094%=      5-min Rain = 0
KMC4 111139Z 14007KT 11/10 A2999 RMK A01 T01080099  RH  094%=      5-min Rain = 0
KMC4 111140Z 14008KT 11/10 A2999 RMK A01 T01080099  RH  094%=      5-min Rain = 0
KMC4 111141Z 13008KT 11/10 A2999 RMK A01 T01080099  RH  094%=      5-min Rain = 0
KMC4 111142Z 14009KT 11/10 A2999 RMK A01 T01080099  RH  094%=      5-min Rain = 0
KMC4 111143Z 14009KT 11/10 A2999 RMK A01 T01080099  RH  094%=      5-min Rain = 0
KMC4 111144Z 14010KT 11/10 A2999 RMK A01 T01080099  RH  094%=      5-min Rain = 0
KMC4 111145Z 14009KT 11/10 A2999 RMK A01 T01080099  RH  094%=      5-min Rain = 0
KMC4 111146Z 14008KT 11/10 A2999 RMK A01 T01080099  RH  094%=      5-min Rain = 0
KMC4 111147Z 13008KT 11/10 A2999 RMK A01 T01080099  RH  094%=      5-min Rain = 0
KMC4 111148Z 13007KT 11/10 A2999 RMK A01 T01080098  RH  094%=      5-min Rain = 0
KMC4 111149Z 13007KT 11/10 A2999 RMK A01 T01070098  RH  094%=      5-min Rain = 0
KMC4 111150Z 14007KT 11/10 A2999 RMK A01 T01060098  RH  094%=      5-min Rain = 0
KMC4 111151Z 14007KT 11/10 A2999 RMK A01 T01070098  RH  094%=      5-min Rain = 0
KMC4 111152Z 13008KT 11/10 A2998 RMK A01 T01070098  RH  094%=      5-min Rain = 0
KMC4 111153Z 13007KT 11/10 A2998 RMK A01 T01060098  RH  095%=      5-min Rain = 0
KMC4 111154Z 13008KT 11/10 A2998 RMK A01 T01060098  RH  095%=      5-min Rain = 0
KMC4 111155Z 13008KT 11/10 A2998 RMK A01 T01060098  RH  095%=      5-min Rain = 0
KMC4 111156Z 14006KT 11/10 A2998 RMK A01 T01060098  RH  095%=      5-min Rain = 0
KMC4 111157Z 14006KT 11/10 A2998 RMK A01 T01060097  RH  095%=      5-min Rain = 0
KMC4 111158Z 15007KT 11/10 A2999 RMK A01 T01060098  RH  095%=      5-min Rain = 0
KMC4 111159Z 16005KT 11/10 A2999 RMK A01 T01050097  RH  095%=      5-min Rain = 0
KMC4 111200Z 16005KT 11/10 A2999 RMK A01 T01050097  RH  095%=      5-min Rain = 0
KMC4 111201Z 15005KT 11/10 A2999 RMK A01 T01050097  RH  095%=      5-min Rain = 0
KMC4 111202Z 15006KT 11/10 A2999 RMK A01 T01050097  RH  095%=      5-min Rain = 0
KMC4 111203Z 15005KT 11/10 A2998 RMK A01 T01050097  RH  095%=      5-min Rain = 0
KMC4 111204Z 14005KT 11/10 A2998 RMK A01 T01050097  RH  095%=      5-min Rain = 0
KMC4 111205Z 14005KT 11/10 A2998 RMK A01 T01050097  RH  095%=      5-min Rain = 0
KMC4 111206Z 14006KT 10/10 A2998 RMK A01 T01040096  RH  095%=      5-min Rain = 0
KMC4 111207Z 14005KT 10/10 A2998 RMK A01 T01040096  RH  095%=      5-min Rain = 0
KMC4 111208Z 14004KT 10/10 A2999 RMK A01 T01040096  RH  095%=      5-min Rain = 0
KMC4 111209Z 13004KT 10/10 A2999 RMK A01 T01030096  RH  095%=      5-min Rain = 0
KMC4 111210Z 14004KT 10/10 A2999 RMK A01 T01030095  RH  095%=      5-min Rain = 0
KMC4 111211Z 14003KT 10/10 A2999 RMK A01 T01030095  RH  095%=      5-min Rain = 0
KMC4 111212Z 15004KT 10/10 A2999 RMK A01 T01020095  RH  095%=      5-min Rain = 0
KMC4 111213Z 15004KT 10/10 A2999 RMK A01 T01020095  RH  095%=      5-min Rain = 0
KMC4 111214Z 16003KT 10/10 A2999 RMK A01 T01020095  RH  095%=      5-min Rain = 0
KMC4 111215Z 16003KT 10/10 A2999 RMK A01 T01020095  RH  095%=      5-min Rain = 0
KMC4 111216Z 16004KT 10/10 A2999 RMK A01 T01020095  RH  096%=      5-min Rain = 0
KMC4 111217Z 16004KT 10/10 A2999 RMK A01 T01020096  RH  096%=      5-min Rain = 0
KMC4 111218Z 16004KT 10/10 A2999 RMK A01 T01010095  RH  096%=      5-min Rain = 0
KMC4 111219Z 16004KT 10/10 A2999 RMK A01 T01010095  RH  096%=      5-min Rain = 0
KMC4 111220Z 16003KT 10/10 A2999 RMK A01 T01010095  RH  096%=      5-min Rain = 0
KMC4 111221Z 15004KT 10/09 A2999 RMK A01 T01010094  RH  096%=      5-min Rain = 0
KMC4 111222Z 15003KT 10/09 A2999 RMK A01 T01010094  RH  096%=      5-min Rain = 0
KMC4 111223Z 15003KT 10/09 A2999 RMK A01 T01000094  RH  096%=      5-min Rain = 0
KMC4 111224Z 15004KT 10/09 A2999 RMK A01 T01000094  RH  096%=      5-min Rain = 0
KMC4 111225Z 14004KT 10/09 A2999 RMK A01 T01000094  RH  096%=      5-min Rain = 0
KMC4 111226Z 14004KT 10/09 A2998 RMK A01 T01000094  RH  096%=      5-min Rain = 0
KMC4 111227Z 14004KT 10/09 A2998 RMK A01 T01000094  RH  096%=      5-min Rain = 0
KMC4 111228Z 14004KT 10/09 A2999 RMK A01 T01000094  RH  096%=      5-min Rain = 0
KMC4 111229Z 14004KT 10/09 A2999 RMK A01 T01000094  RH  096%=      5-min Rain = 0
KMC4 111230Z 14005KT 10/09 A2999 RMK A01 T01000094  RH  096%=      5-min Rain = 0
KMC4 111231Z 13004KT 10/09 A2999 RMK A01 T01000094  RH  097%=      5-min Rain = 0
KMC4 111232Z 13004KT 10/10 A2998 RMK A01 T01000095  RH  097%=      5-min Rain = 0
KMC4 111233Z 14004KT 10/10 A2998 RMK A01 T01000095  RH  097%=      5-min Rain = 0
KMC4 111234Z 13004KT 10/10 A2998 RMK A01 T01000095  RH  097%=      5-min Rain = 0
KMC4 111235Z 13004KT 10/10 A2998 RMK A01 T01000095  RH  097%=      5-min Rain = 0
KMC4 111236Z 14004KT 10/10 A2998 RMK A01 T01000095  RH  097%=      5-min Rain = 0
KMC4 111237Z 14005KT 10/10 A2999 RMK A01 T01000095  RH  097%=      5-min Rain = 0
KMC4 111238Z 14005KT 10/10 A2999 RMK A01 T01000095  RH  097%=      5-min Rain = 0
KMC4 111239Z 14005KT 10/10 A2999 RMK A01 T01010096  RH  097%=      5-min Rain = 0
KMC4 111240Z 15005KT 10/10 A2999 RMK A01 T01010096  RH  097%=      5-min Rain = 0
KMC4 111241Z 14005KT 10/10 A2999 RMK A01 T01010096  RH  097%=      5-min Rain = 0
KMC4 111242Z 14005KT 10/10 A2999 RMK A01 T01010096  RH  097%=      5-min Rain = 0
KMC4 111243Z 14005KT 10/10 A2999 RMK A01 T01010096  RH  097%=      5-min Rain = 0
KMC4 111244Z 14005KT 10/10 A2999 RMK A01 T01010096  RH  097%=      5-min Rain = 0
KMC4 111245Z 13004KT 10/10 A2999 RMK A01 T01010096  RH  097%=      5-min Rain = 0
KMC4 111246Z 13005KT 10/10 A2999 RMK A01 T01010096  RH  097%=      5-min Rain = 0
KMC4 111247Z 13005KT 10/10 A2999 RMK A01 T01010096  RH  097%=      5-min Rain = 0
KMC4 111248Z 13006KT 10/10 A2999 RMK A01 T01020097  RH  097%=      5-min Rain = 0
KMC4 111249Z 13006KT 10/10 A2999 RMK A01 T01020097  RH  097%=      5-min Rain = 0
KMC4 111250Z 13006KT 10/10 A2999 RMK A01 T01020097  RH  097%=      5-min Rain = 0
KMC4 111251Z 13006KT 10/10 A2999 RMK A01 T01020097  RH  097%=      5-min Rain = 0
KMC4 111252Z 13006KT 10/10 A2999 RMK A01 T01020097  RH  097%=      5-min Rain = 0
KMC4 111253Z 13005KT 10/10 A2999 RMK A01 T01020097  RH  096%=      5-min Rain = 0
KMC4 111254Z 13006KT 10/10 A2999 RMK A01 T01030097  RH  096%=      5-min Rain = 0
KMC4 111255Z 13004KT 10/10 A2999 RMK A01 T01020097  RH  096%=      5-min Rain = 0
KMC4 111256Z 13005KT 10/10 A2999 RMK A01 T01020097  RH  096%=      5-min Rain = 0
KMC4 111257Z 13005KT 10/10 A2999 RMK A01 T01030097  RH  096%=      5-min Rain = 0
KMC4 111258Z 13004KT 10/10 A2999 RMK A01 T01020097  RH  096%=      5-min Rain = 0
KMC4 111259Z 13004KT 10/10 A2999 RMK A01 T01020097  RH  096%=      5-min Rain = 0
KMC4 111300Z 14005KT 10/10 A30 RMK A01 T01020097  RH  096%=      5-min Rain = 0
KMC4 111301Z 15005KT 10/10 A30 RMK A01 T01030097  RH  096%=      5-min Rain = 0
KMC4 111302Z 14004KT 10/10 A30 RMK A01 T01030097  RH  096%=      5-min Rain = 0
KMC4 111303Z 15005KT 10/10 A30 RMK A01 T01030097  RH  096%=      5-min Rain = 0
KMC4 111304Z 16004KT 10/10 A30 RMK A01 T01030098  RH  096%=      5-min Rain = 0
KMC4 111305Z 17003KT 10/10 A3001 RMK A01 T01030098  RH  096%=      5-min Rain = 0
KMC4 111306Z 18003KT 10/10 A3001 RMK A01 T01030097  RH  096%=      5-min Rain = 0
KMC4 111307Z 17002KT 10/10 A3001 RMK A01 T01030097  RH  096%=      5-min Rain = 0
KMC4 111308Z 19003KT 10/10 A3001 RMK A01 T01040097  RH  096%=      5-min Rain = 0
KMC4 111309Z 18002KT 10/10 A3001 RMK A01 T01040098  RH  096%=      5-min Rain = 0
KMC4 111310Z 18004KT 10/10 A3001 RMK A01 T01040098  RH  096%=      5-min Rain = 0
KMC4 111311Z 16003KT 10/10 A3001 RMK A01 T01040098  RH  096%=      5-min Rain = 0
KMC4 111312Z 17005KT 10/10 A3001 RMK A01 T01040098  RH  096%=      5-min Rain = 0
KMC4 111313Z 17004KT 10/10 A3001 RMK A01 T01040098  RH  096%=      5-min Rain = 0
KMC4 111314Z 17005KT 11/10 A3001 RMK A01 T01050098  RH  096%=      5-min Rain = 0
KMC4 111315Z 17004KT 11/10 A3001 RMK A01 T01050099  RH  096%=      5-min Rain = 0
KMC4 111316Z 17004KT 11/10 A3001 RMK A01 T01060098  RH  095%=      5-min Rain = 0
KMC4 111317Z 17004KT 11/10 A3001 RMK A01 T01060099  RH  095%=      5-min Rain = 0
KMC4 111318Z 18003KT 11/10 A3001 RMK A01 T01060098  RH  095%=      5-min Rain = 0
KMC4 111319Z 18005KT 11/10 A3001 RMK A01 T01060098  RH  095%=      5-min Rain = 0
KMC4 111320Z 17004KT 11/10 A3001 RMK A01 T01060098  RH  095%=      5-min Rain = 0
KMC4 111321Z 17004KT 11/10 A3001 RMK A01 T01060099  RH  095%=      5-min Rain = 0
KMC4 111322Z 17003KT 11/10 A3002 RMK A01 T01070099  RH  095%=      5-min Rain = 0
KMC4 111323Z 17003KT 11/10 A3002 RMK A01 T01070099  RH  095%=      5-min Rain = 0
KMC4 111324Z 15003KT 11/10 A3002 RMK A01 T01070099  RH  095%=      5-min Rain = 0
KMC4 111325Z 17002KT 11/10 A3001 RMK A01 T01060098  RH  095%=      5-min Rain = 0
KMC4 111326Z 16002KT 11/10 A3001 RMK A01 T01070099  RH  095%=      5-min Rain = 0
KMC4 111327Z 19002KT 11/10 A3001 RMK A01 T01070099  RH  095%=      5-min Rain = 0
KMC4 111328Z 18003KT 11/10 A3002 RMK A01 T01070098  RH  095%=      5-min Rain = 0
KMC4 111329Z 18005KT 11/10 A3002 RMK A01 T01070099  RH  095%=      5-min Rain = 0
KMC4 111330Z 18004KT 11/10 A3002 RMK A01 T01070099  RH  095%=      5-min Rain = 0
KMC4 111331Z 19005KT 11/10 A3002 RMK A01 T01070099  RH  095%=      5-min Rain = 0
KMC4 111332Z 19005KT 11/10 A3002 RMK A01 T01070099  RH  095%=      5-min Rain = 0
KMC4 111333Z 18006KT 11/10 A3002 RMK A01 T01070099  RH  095%=      5-min Rain = 0
KMC4 111334Z 18006KT 11/10 A3002 RMK A01 T01070099  RH  095%=      5-min Rain = 0
KMC4 111335Z 18005KT 11/10 A3002 RMK A01 T01070099  RH  095%=      5-min Rain = 0
KMC4 111336Z 18006KT 11/10 A3003 RMK A01 T01080099  RH  095%=      5-min Rain = 0
KMC4 111337Z 18006KT 11/10 A3003 RMK A01 T01070099  RH  095%=      5-min Rain = 0
KMC4 111338Z 18005KT 11/10 A3003 RMK A01 T01070099  RH  095%=      5-min Rain = 0
KMC4 111339Z 18005KT 11/10 A3003 RMK A01 T01080100  RH  095%=      5-min Rain = 0
KMC4 111340Z 18005KT 11/10 A3003 RMK A01 T01080100  RH  095%=      5-min Rain = 0
KMC4 111341Z 18004KT 11/10 A3003 RMK A01 T01070099  RH  095%=      5-min Rain = 0
KMC4 111342Z 17004KT 11/10 A3003 RMK A01 T01080100  RH  095%=      5-min Rain = 0
KMC4 111343Z 17005KT 11/10 A3003 RMK A01 T01080100  RH  095%=      5-min Rain = 0
KMC4 111344Z 18005KT 11/10 A3003 RMK A01 T01080100  RH  095%=      5-min Rain = 0
KMC4 111345Z 18005KT 11/10 A3003 RMK A01 T01080100  RH  095%=      5-min Rain = 0
KMC4 111346Z 19004KT 11/10 A3003 RMK A01 T01080100  RH  095%=      5-min Rain = 0
KMC4 111347Z 18004KT 11/10 A3003 RMK A01 T01080100  RH  095%=      5-min Rain = 0
KMC4 111348Z 19003KT 11/10 A3003 RMK A01 T01080100  RH  095%=      5-min Rain = 0
KMC4 111349Z 17004KT 11/10 A3003 RMK A01 T01080100  RH  095%=      5-min Rain = 0
KMC4 111350Z 16006KT 11/10 A3003 RMK A01 T01080100  RH  095%=      5-min Rain = 0
KMC4 111351Z 16006KT 11/10 A3003 RMK A01 T01080100  RH  095%=      5-min Rain = 0
KMC4 111352Z 17007KT 11/10 A3003 RMK A01 T01080100  RH  095%=      5-min Rain = 0
KMC4 111353Z 18006KT 11/10 A3003 RMK A01 T01090101  RH  095%=      5-min Rain = 0
KMC4 111354Z 18007KT 11/10 A3003 RMK A01 T01090101  RH  095%=      5-min Rain = 0
KMC4 111355Z 17005KT 11/10 A3003 RMK A01 T01090101  RH  095%=      5-min Rain = 0
KMC4 111356Z 18005KT 11/10 A3003 RMK A01 T01100101  RH  094%=      5-min Rain = 0
KMC4 111357Z 17004KT 11/10 A3003 RMK A01 T01090101  RH  094%=      5-min Rain = 0
KMC4 111358Z 18004KT 11/10 A3003 RMK A01 T01090101  RH  095%=      5-min Rain = 0
KMC4 111359Z 16006KT 11/10 A3003 RMK A01 T01090101  RH  095%=      5-min Rain = 0
KMC4 111400Z 15004KT 11/10 A3003 RMK A01 T01090101  RH  095%=      5-min Rain = 0
KMC4 111401Z 16005KT 11/10 A3002 RMK A01 T01090101  RH  095%=      5-min Rain = 0
KMC4 111402Z 15004KT 11/10 A3002 RMK A01 T01090101  RH  095%=      5-min Rain = 0
KMC4 111403Z 15006KT 11/10 A3002 RMK A01 T01090101  RH  095%=      5-min Rain = 0
KMC4 111404Z 15005KT 11/10 A3002 RMK A01 T01090101  RH  095%=      5-min Rain = 0
KMC4 111405Z 14004KT 11/10 A3002 RMK A01 T01090101  RH  095%=      5-min Rain = 0
KMC4 111406Z 14002KT 11/10 A3002 RMK A01 T01090101  RH  095%=      5-min Rain = 0
KMC4 111407Z 14003KT 11/10 A3002 RMK A01 T01090101  RH  095%=      5-min Rain = 0
KMC4 111408Z 15003KT 11/10 A3002 RMK A01 T01090101  RH  095%=      5-min Rain = 0
KMC4 111409Z 13002KT 11/10 A3002 RMK A01 T01090101  RH  095%=      5-min Rain = 0
KMC4 111410Z 13003KT 11/10 A3002 RMK A01 T01080101  RH  095%=      5-min Rain = 0
KMC4 111411Z 13003KT 11/10 A3002 RMK A01 T01090101  RH  095%=      5-min Rain = 0
KMC4 111412Z 13003KT 11/10 A3002 RMK A01 T01090101  RH  095%=      5-min Rain = 0
KMC4 111413Z 12002KT 11/10 A3002 RMK A01 T01080101  RH  095%=      5-min Rain = 0
KMC4 111414Z 11002KT 11/10 A3002 RMK A01 T01090101  RH  095%=      5-min Rain = 0
KMC4 111415Z 14003KT 11/10 A3002 RMK A01 T01080101  RH  095%=      5-min Rain = 0
KMC4 111416Z 14003KT 11/10 A3002 RMK A01 T01090101  RH  095%=      5-min Rain = 0
KMC4 111417Z 16003KT 11/10 A3002 RMK A01 T01080101  RH  095%=      5-min Rain = 0
KMC4 111418Z 17004KT 11/10 A3002 RMK A01 T01090101  RH  095%=      5-min Rain = 0
KMC4 111419Z 16004KT 11/10 A3002 RMK A01 T01090101  RH  095%=      5-min Rain = 0
KMC4 111420Z 16004KT 11/10 A3002 RMK A01 T01090101  RH  095%=      5-min Rain = 0
KMC4 111421Z 16004KT 11/10 A3002 RMK A01 T01090100  RH  095%=      5-min Rain = 0
KMC4 111422Z 16005KT 11/10 A3002 RMK A01 T01090101  RH  094%=      5-min Rain = 0
KMC4 111423Z 16005KT 11/10 A3002 RMK A01 T01090101  RH  094%=      5-min Rain = 0
KMC4 111424Z 15004KT 11/10 A3002 RMK A01 T01090100  RH  094%=      5-min Rain = 0
KMC4 111425Z 15004KT 11/10 A3002 RMK A01 T01100101  RH  094%=      5-min Rain = 0
KMC4 111426Z 15005KT 11/10 A3002 RMK A01 T01100101  RH  094%=      5-min Rain = 0
KMC4 111427Z 15004KT 11/10 A3001 RMK A01 T01100101  RH  094%=      5-min Rain = 0
KMC4 111428Z 16004KT 11/10 A3001 RMK A01 T01100101  RH  094%=      5-min Rain = 0
KMC4 111429Z 15004KT 11/10 A3001 RMK A01 T01090100  RH  094%=      5-min Rain = 0
KMC4 111430Z 15004KT 11/10 A3001 RMK A01 T01090101  RH  094%=      5-min Rain = 0
KMC4 111431Z 15004KT 11/10 A3001 RMK A01 T01090100  RH  094%=      5-min Rain = 0
KMC4 111432Z 15005KT 11/10 A3001 RMK A01 T01090101  RH  094%=      5-min Rain = 0
KMC4 111433Z 15005KT 11/10 A3001 RMK A01 T01090101  RH  094%=      5-min Rain = 0
KMC4 111434Z 14005KT 11/10 A3001 RMK A01 T01100101  RH  095%=      5-min Rain = 0
KMC4 111435Z 14006KT 11/10 A30 RMK A01 T01090101  RH  095%=      5-min Rain = 0
KMC4 111436Z 14006KT 11/10 A30 RMK A01 T01090101  RH  095%=      5-min Rain = 0
KMC4 111437Z 15006KT 11/10 A30 RMK A01 T01090101  RH  095%=      5-min Rain = 0.01
KMC4 111438Z 14006KT 11/10 A30 RMK A01 T01090101  RH  095%=      5-min Rain = 0
KMC4 111439Z 15006KT 11/10 A30 RMK A01 T01090101  RH  095%=      5-min Rain = 0
KMC4 111440Z 15006KT 11/10 A30 RMK A01 T01090101  RH  095%=      5-min Rain = 0
KMC4 111441Z 15005KT 11/10 A30 RMK A01 T01080101  RH  095%=      5-min Rain = 0
KMC4 111442Z 16005KT 11/10 A30 RMK A01 T01080101  RH  095%=      5-min Rain = 0
KMC4 111443Z 16005KT 11/10 A30 RMK A01 T01090101  RH  095%=      5-min Rain = 0
KMC4 111444Z 16005KT 11/10 A30 RMK A01 T01080101  RH  095%=      5-min Rain = 0
KMC4 111445Z 15004KT 11/10 A30 RMK A01 T01090101  RH  095%=      5-min Rain = 0
KMC4 111446Z 14004KT 11/10 A30 RMK A01 T01090101  RH  095%=      5-min Rain = 0
KMC4 111447Z 14004KT 11/10 A30 RMK A01 T01090101  RH  095%=      5-min Rain = 0
KMC4 111448Z 13004KT 11/10 A30 RMK A01 T01090101  RH  095%=      5-min Rain = 0
KMC4 111449Z 13003KT 11/10 A30 RMK A01 T01080101  RH  095%=      5-min Rain = 0
KMC4 111450Z 12003KT 11/10 A30 RMK A01 T01090101  RH  095%=      5-min Rain = 0
KMC4 111451Z 11002KT 11/10 A30 RMK A01 T01090101  RH  095%=      5-min Rain = 0
KMC4 111452Z 10003KT 11/10 A30 RMK A01 T01080101  RH  095%=      5-min Rain = 0
KMC4 111453Z 11002KT 11/10 A30 RMK A01 T01090101  RH  095%=      5-min Rain = 0
KMC4 111454Z 11003KT 11/10 A30 RMK A01 T01080101  RH  095%=      5-min Rain = 0
KMC4 111455Z 12003KT 11/10 A30 RMK A01 T01090101  RH  095%=      5-min Rain = 0
KMC4 111456Z 12004KT 11/10 A30 RMK A01 T01080101  RH  095%=      5-min Rain = 0
KMC4 111457Z 13004KT 11/10 A30 RMK A01 T01090101  RH  095%=      5-min Rain = 0
KMC4 111458Z 14004KT 11/10 A30 RMK A01 T01090101  RH  095%=      5-min Rain = 0
KMC4 111459Z 15004KT 11/10 A3001 RMK A01 T01090101  RH  095%=      5-min Rain = 0
KMC4 111500Z 16004KT 11/10 A3001 RMK A01 T01090101  RH  095%=      5-min Rain = 0
KMC4 111501Z 16003KT 11/10 A3001 RMK A01 T01090101  RH  095%=      5-min Rain = 0
KMC4 111502Z 17003KT 11/10 A3001 RMK A01 T01090101  RH  095%=      5-min Rain = 0
KMC4 111503Z 17002KT 11/10 A3001 RMK A01 T01090102  RH  095%=      5-min Rain = 0
KMC4 111504Z 17002KT 11/10 A3001 RMK A01 T01090102  RH  095%=      5-min Rain = 0
KMC4 111505Z 16003KT 11/10 A3001 RMK A01 T01090101  RH  095%=      5-min Rain = 0
KMC4 111506Z 19002KT 11/10 A3001 RMK A01 T01090101  RH  095%=      5-min Rain = 0
KMC4 111507Z 18002KT 11/10 A3002 RMK A01 T01090101  RH  095%=      5-min Rain = 0
KMC4 111508Z 20001KT 11/10 A3002 RMK A01 T01090101  RH  095%=      5-min Rain = 0
KMC4 111509Z 21002KT 11/10 A3002 RMK A01 T01090101  RH  095%=      5-min Rain = 0
KMC4 111510Z 22002KT 11/10 A3002 RMK A01 T01100102  RH  095%=      5-min Rain = 0
KMC4 111511Z 22002KT 11/10 A3002 RMK A01 T01100102  RH  095%=      5-min Rain = 0
KMC4 111512Z 22003KT 11/10 A3002 RMK A01 T01100102  RH  095%=      5-min Rain = 0
KMC4 111513Z 20003KT 11/10 A3002 RMK A01 T01100102  RH  095%=      5-min Rain = 0
KMC4 111514Z 20004KT 11/10 A3002 RMK A01 T01110103  RH  095%=      5-min Rain = 0
KMC4 111515Z 21004KT 11/10 A3002 RMK A01 T01100102  RH  095%=      5-min Rain = 0
KMC4 111516Z 21004KT 11/10 A3002 RMK A01 T01110103  RH  095%=      5-min Rain = 0
KMC4 111517Z 21004KT 11/10 A3002 RMK A01 T01110103  RH  095%=      5-min Rain = 0
KMC4 111518Z 20004KT 11/10 A3002 RMK A01 T01110103  RH  095%=      5-min Rain = 0
KMC4 111519Z 20005KT 11/10 A3002 RMK A01 T01110103  RH  095%=      5-min Rain = 0
KMC4 111520Z 19004KT 11/10 A3002 RMK A01 T01110103  RH  095%=      5-min Rain = 0
KMC4 111521Z 19003KT 11/10 A3002 RMK A01 T01110103  RH  094%=      5-min Rain = 0
KMC4 111522Z 17003KT 11/10 A3002 RMK A01 T01110103  RH  094%=      5-min Rain = 0
KMC4 111523Z 18005KT 11/10 A3002 RMK A01 T01120103  RH  094%=      5-min Rain = 0
KMC4 111524Z 17004KT 11/10 A3002 RMK A01 T01110102  RH  094%=      5-min Rain = 0
KMC4 111525Z 17004KT 11/10 A3002 RMK A01 T01120103  RH  094%=      5-min Rain = 0
KMC4 111526Z 17006KT 11/10 A3002 RMK A01 T01120103  RH  094%=      5-min Rain = 0
KMC4 111527Z 16005KT 11/10 A3002 RMK A01 T01120103  RH  094%=      5-min Rain = 0
KMC4 111528Z 17005KT 11/10 A3002 RMK A01 T01120102  RH  094%=      5-min Rain = 0
KMC4 111529Z 15005KT 11/10 A3002 RMK A01 T01130103  RH  094%=      5-min Rain = 0
KMC4 111530Z 15004KT 11/10 A3002 RMK A01 T01130102  RH  093%=      5-min Rain = 0
KMC4 111531Z 15005KT 11/10 A3002 RMK A01 T01130103  RH  093%=      5-min Rain = 0
KMC4 111532Z 15005KT 11/10 A3001 RMK A01 T01130102  RH  093%=      5-min Rain = 0
KMC4 111533Z 14006KT 11/10 A3001 RMK A01 T01130103  RH  094%=      5-min Rain = 0
KMC4 111534Z 14007KT 11/10 A3001 RMK A01 T01130103  RH  094%=      5-min Rain = 0
KMC4 111535Z 13007KT 11/10 A3001 RMK A01 T01130104  RH  094%=      5-min Rain = 0
KMC4 111536Z 13007KT 11/10 A3001 RMK A01 T01130103  RH  094%=      5-min Rain = 0
KMC4 111537Z 13007KT 11/10 A3001 RMK A01 T01140103  RH  093%=      5-min Rain = 0
KMC4 111538Z 12006KT 11/10 A3001 RMK A01 T01140103  RH  093%=      5-min Rain = 0
KMC4 111539Z 13006KT 11/10 A3001 RMK A01 T01130103  RH  093%=      5-min Rain = 0
KMC4 111540Z 14006KT 11/10 A3001 RMK A01 T01140103  RH  093%=      5-min Rain = 0
KMC4 111541Z 14005KT 11/10 A3001 RMK A01 T01140103  RH  093%=      5-min Rain = 0
KMC4 111542Z 13005KT 11/10 A3001 RMK A01 T01140103  RH  093%=      5-min Rain = 0
KMC4 111543Z 13006KT 11/10 A3001 RMK A01 T01140103  RH  093%=      5-min Rain = 0
KMC4 111544Z 14006KT 11/10 A3001 RMK A01 T01140103  RH  093%=      5-min Rain = 0
KMC4 111545Z 15006KT 12/11 A3001 RMK A01 T01150105  RH  094%=      5-min Rain = 0
KMC4 111546Z 14006KT 12/11 A3001 RMK A01 T01150105  RH  094%=      5-min Rain = 0
KMC4 111547Z 14007KT 12/11 A3001 RMK A01 T01150106  RH  094%=      5-min Rain = 0
KMC4 111548Z 13005KT 12/11 A3001 RMK A01 T01150106  RH  094%=      5-min Rain = 0
KMC4 111549Z 13004KT 12/11 A3001 RMK A01 T01160107  RH  094%=      5-min Rain = 0
KMC4 111550Z 13006KT 12/11 A3001 RMK A01 T01160108  RH  095%=      5-min Rain = 0
KMC4 111551Z 13006KT 12/11 A3001 RMK A01 T01160108  RH  094%=      5-min Rain = 0
KMC4 111552Z 14007KT 12/11 A3001 RMK A01 T01160107  RH  094%=      5-min Rain = 0
KMC4 111553Z 14008KT 12/11 A3001 RMK A01 T01160107  RH  094%=      5-min Rain = 0
KMC4 111554Z 14009KT 12/11 A3001 RMK A01 T01150106  RH  094%=      5-min Rain = 0
KMC4 111555Z 15008KT 12/11 A3001 RMK A01 T01150106  RH  094%=      5-min Rain = 0
KMC4 111556Z 15007KT 12/11 A3001 RMK A01 T01150106  RH  094%=      5-min Rain = 0
KMC4 111557Z 15008KT 12/11 A3001 RMK A01 T01150106  RH  094%=      5-min Rain = 0
KMC4 111558Z 15009KT 12/11 A30 RMK A01 T01150106  RH  094%=      5-min Rain = 0
KMC4 111559Z 15008KT 12/11 A30 RMK A01 T01150106  RH  094%=      5-min Rain = 0
KMC4 111600Z 15007KT 12/11 A30 RMK A01 T01150106  RH  094%=      5-min Rain = 0
KMC4 111601Z 15009KT 12/11 A30 RMK A01 T01150106  RH  094%=      5-min Rain = 0
KMC4 111602Z 15008KT 12/11 A3001 RMK A01 T01150106  RH  094%=      5-min Rain = 0
KMC4 111603Z 15007KT 12/11 A3001 RMK A01 T01160106  RH  094%=      5-min Rain = 0
KMC4 111604Z 16009KT 12/11 A3001 RMK A01 T01160106  RH  094%=      5-min Rain = 0
KMC4 111605Z 16008KT 12/11 A3001 RMK A01 T01160106  RH  094%=      5-min Rain = 0
KMC4 111606Z 16009KT 12/11 A3001 RMK A01 T01160106  RH  093%=      5-min Rain = 0
KMC4 111607Z 16008KT 12/11 A3001 RMK A01 T01160106  RH  093%=      5-min Rain = 0
KMC4 111608Z 16008KT 12/11 A3001 RMK A01 T01170106  RH  093%=      5-min Rain = 0
KMC4 111609Z 16008KT 12/11 A3001 RMK A01 T01170107  RH  093%=      5-min Rain = 0
KMC4 111610Z 16008KT 12/11 A3001 RMK A01 T01170107  RH  094%=      5-min Rain = 0
KMC4 111611Z 16007KT 12/11 A3001 RMK A01 T01170106  RH  093%=      5-min Rain = 0
KMC4 111612Z 16007KT 12/11 A3001 RMK A01 T01170107  RH  094%=      5-min Rain = 0
KMC4 111613Z 16009KT 12/11 A3001 RMK A01 T01170107  RH  094%=      5-min Rain = 0
KMC4 111614Z 16007KT 12/11 A3001 RMK A01 T01170107  RH  093%=      5-min Rain = 0
KMC4 111615Z 16007KT 12/11 A3001 RMK A01 T01170107  RH  094%=      5-min Rain = 0
KMC4 111616Z 16008KT 12/11 A3001 RMK A01 T01170107  RH  094%=      5-min Rain = 0
KMC4 111617Z 16008KT 12/11 A3001 RMK A01 T01180107  RH  093%=      5-min Rain = 0
KMC4 111618Z 16007KT 12/11 A3002 RMK A01 T01180107  RH  093%=      5-min Rain = 0
KMC4 111619Z 16006KT 12/11 A3002 RMK A01 T01180108  RH  094%=      5-min Rain = 0
KMC4 111620Z 16007KT 12/11 A3001 RMK A01 T01180108  RH  094%=      5-min Rain = 0
KMC4 111621Z 16006KT 12/11 A3001 RMK A01 T01180108  RH  093%=      5-min Rain = 0
KMC4 111622Z 16007KT 12/11 A3001 RMK A01 T01180108  RH  093%=      5-min Rain = 0
KMC4 111623Z 15007KT 12/11 A3001 RMK A01 T01180108  RH  093%=      5-min Rain = 0
KMC4 111624Z 16006KT 12/11 A3001 RMK A01 T01180108  RH  093%=      5-min Rain = 0
KMC4 111625Z 15007KT 12/11 A3001 RMK A01 T01180108  RH  094%=      5-min Rain = 0.01
KMC4 111626Z 15007KT 12/11 A3001 RMK A01 T01180108  RH  094%=      5-min Rain = 0
KMC4 111627Z 15006KT 12/11 A3001 RMK A01 T01180108  RH  094%=      5-min Rain = 0
KMC4 111628Z 15006KT 12/11 A3001 RMK A01 T01180109  RH  094%=      5-min Rain = 0
KMC4 111629Z 15007KT 12/11 A3001 RMK A01 T01190109  RH  094%=      5-min Rain = 0
KMC4 111630Z 15006KT 12/11 A3001 RMK A01 T01190109  RH  094%=      5-min Rain = 0
KMC4 111631Z 15007KT 12/11 A3001 RMK A01 T01190109  RH  094%=      5-min Rain = 0
KMC4 111632Z 15007KT 12/11 A3001 RMK A01 T01190108  RH  093%=      5-min Rain = 0
KMC4 111633Z 15007KT 12/11 A3001 RMK A01 T01190108  RH  093%=      5-min Rain = 0
KMC4 111634Z 15007KT 12/11 A3001 RMK A01 T01190108  RH  093%=      5-min Rain = 0
KMC4 111635Z 15006KT 12/11 A3001 RMK A01 T01190108  RH  093%=      5-min Rain = 0
KMC4 111636Z 15008KT 12/11 A3001 RMK A01 T01200109  RH  093%=      5-min Rain = 0
KMC4 111637Z 14007KT 12/11 A30 RMK A01 T01200109  RH  093%=      5-min Rain = 0
KMC4 111638Z 14007KT 12/11 A30 RMK A01 T01200108  RH  093%=      5-min Rain = 0
KMC4 111639Z 15007KT 12/11 A30 RMK A01 T01200108  RH  093%=      5-min Rain = 0
KMC4 111640Z 15007KT 12/11 A3001 RMK A01 T01200109  RH  093%=      5-min Rain = 0
KMC4 111641Z 15006KT 12/11 A3001 RMK A01 T01200109  RH  093%=      5-min Rain = 0
KMC4 111642Z 16006KT 12/11 A3001 RMK A01 T01200109  RH  093%=      5-min Rain = 0
KMC4 111643Z 16005KT 12/11 A3001 RMK A01 T01200110  RH  093%=      5-min Rain = 0
KMC4 111644Z 16006KT 12/11 A3001 RMK A01 T01210110  RH  093%=      5-min Rain = 0
KMC4 111645Z 15006KT 12/11 A3001 RMK A01 T01210110  RH  093%=      5-min Rain = 0
KMC4 111646Z 16006KT 12/11 A3001 RMK A01 T01210110  RH  093%=      5-min Rain = 0
KMC4 111647Z 16008KT 12/11 A3001 RMK A01 T01210110  RH  093%=      5-min Rain = 0
KMC4 111648Z 15006KT 12/11 A3001 RMK A01 T01210110  RH  093%=      5-min Rain = 0
KMC4 111649Z 16006KT 12/11 A3001 RMK A01 T01210110  RH  093%=      5-min Rain = 0
KMC4 111650Z 16006KT 12/11 A3001 RMK A01 T01220111  RH  093%=      5-min Rain = 0
KMC4 111651Z 16007KT 12/11 A3001 RMK A01 T01220111  RH  093%=      5-min Rain = 0
KMC4 111652Z 16008KT 12/11 A3001 RMK A01 T01220110  RH  092%=      5-min Rain = 0
KMC4 111653Z 16007KT 12/11 A3001 RMK A01 T01230110  RH  092%=      5-min Rain = 0
KMC4 111654Z 16007KT 12/11 A3001 RMK A01 T01230109  RH  092%=      5-min Rain = 0
KMC4 111655Z 16006KT 12/11 A3001 RMK A01 T01230109  RH  091%=      5-min Rain = 0
KMC4 111656Z 16006KT 12/11 A3001 RMK A01 T01230110  RH  091%=      5-min Rain = 0
KMC4 111657Z 16006KT 12/11 A3001 RMK A01 T01240111  RH  092%=      5-min Rain = 0
KMC4 111658Z 16007KT 12/11 A3001 RMK A01 T01240111  RH  092%=      5-min Rain = 0
KMC4 111659Z 16006KT 12/11 A3001 RMK A01 T01240111  RH  092%=      5-min Rain = 0
KMC4 111700Z 16005KT 12/11 A3001 RMK A01 T01240111  RH  092%=      5-min Rain = 0
KMC4 111701Z 16006KT 12/11 A3001 RMK A01 T01240112  RH  092%=      5-min Rain = 0
KMC4 111702Z 16007KT 12/11 A3001 RMK A01 T01240111  RH  092%=      5-min Rain = 0
KMC4 111703Z 16006KT 12/11 A3001 RMK A01 T01240111  RH  092%=      5-min Rain = 0
KMC4 111704Z 16007KT 12/11 A3001 RMK A01 T01240112  RH  092%=      5-min Rain = 0
KMC4 111705Z 15006KT 13/11 A3001 RMK A01 T01250111  RH  091%=      5-min Rain = 0
KMC4 111706Z 15005KT 13/11 A3001 RMK A01 T01250112  RH  091%=      5-min Rain = 0
KMC4 111707Z 15005KT 13/11 A3001 RMK A01 T01250113  RH  092%=      5-min Rain = 0
KMC4 111708Z 16005KT 13/11 A3001 RMK A01 T01260113  RH  092%=      5-min Rain = 0
KMC4 111709Z 17005KT 13/11 A3001 RMK A01 T01260113  RH  092%=      5-min Rain = 0
KMC4 111710Z 16006KT 13/11 A3001 RMK A01 T01260113  RH  092%=      5-min Rain = 0
KMC4 111711Z 16006KT 13/11 A3001 RMK A01 T01260113  RH  092%=      5-min Rain = 0
KMC4 111712Z 15007KT 13/11 A3001 RMK A01 T01260112  RH  091%=      5-min Rain = 0
KMC4 111713Z 16005KT 13/11 A3001 RMK A01 T01260111  RH  091%=      5-min Rain = 0
KMC4 111714Z 16006KT 13/11 A3001 RMK A01 T01260112  RH  091%=      5-min Rain = 0
KMC4 111715Z 16006KT 13/11 A3001 RMK A01 T01270112  RH  091%=      5-min Rain = 0
KMC4 111716Z 16006KT 13/11 A3001 RMK A01 T01260112  RH  091%=      5-min Rain = 0
KMC4 111717Z 17007KT 13/11 A3001 RMK A01 T01270113  RH  091%=      5-min Rain = 0
KMC4 111718Z 17006KT 13/11 A3001 RMK A01 T01270112  RH  091%=      5-min Rain = 0
KMC4 111719Z 17006KT 13/11 A3001 RMK A01 T01260112  RH  091%=      5-min Rain = 0
KMC4 111720Z 17007KT 13/11 A3001 RMK A01 T01270112  RH  091%=      5-min Rain = 0
KMC4 111721Z 17006KT 13/11 A3001 RMK A01 T01270111  RH  090%=      5-min Rain = 0
KMC4 111722Z 17005KT 13/11 A3001 RMK A01 T01270111  RH  090%=      5-min Rain = 0
KMC4 111723Z 17006KT 13/11 A3001 RMK A01 T01270112  RH  090%=      5-min Rain = 0
KMC4 111724Z 17006KT 13/11 A3001 RMK A01 T01270111  RH  090%=      5-min Rain = 0
KMC4 111725Z 17006KT 13/11 A3001 RMK A01 T01270111  RH  090%=      5-min Rain = 0
KMC4 111726Z 17006KT 13/11 A3001 RMK A01 T01270110  RH  089%=      5-min Rain = 0
KMC4 111727Z 17007KT 13/11 A3001 RMK A01 T01270109  RH  089%=      5-min Rain = 0
KMC4 111728Z 17007KT 13/11 A30 RMK A01 T01280109  RH  088%=      5-min Rain = 0
KMC4 111729Z 17007KT 13/11 A30 RMK A01 T01280109  RH  088%=      5-min Rain = 0
KMC4 111730Z 17008KT 13/11 A30 RMK A01 T01280109  RH  088%=      5-min Rain = 0
KMC4 111731Z 16007KT 13/11 A30 RMK A01 T01280109  RH  088%=      5-min Rain = 0
KMC4 111732Z 16006KT 13/11 A30 RMK A01 T01280110  RH  088%=      5-min Rain = 0
KMC4 111733Z 16006KT 13/11 A30 RMK A01 T01290110  RH  088%=      5-min Rain = 0
KMC4 111734Z 17006KT 13/11 A30 RMK A01 T01290110  RH  089%=      5-min Rain = 0
KMC4 111735Z 17006KT 13/11 A30 RMK A01 T01290111  RH  089%=      5-min Rain = 0
KMC4 111736Z 17006KT 13/11 A30 RMK A01 T01290111  RH  089%=      5-min Rain = 0
KMC4 111737Z 17007KT 13/11 A30 RMK A01 T01300111  RH  088%=      5-min Rain = 0
KMC4 111738Z 17005KT 13/11 A30 RMK A01 T01290111  RH  088%=      5-min Rain = 0
KMC4 111739Z 17006KT 13/11 A30 RMK A01 T01300113  RH  089%=      5-min Rain = 0
KMC4 111740Z 18007KT 13/11 A30 RMK A01 T01310112  RH  089%=      5-min Rain = 0
KMC4 111741Z 18007KT 13/11 A30 RMK A01 T01310110  RH  087%=      5-min Rain = 0
KMC4 111742Z 17007KT 13/11 A30 RMK A01 T01300110  RH  087%=      5-min Rain = 0
KMC4 111743Z 18007KT 13/11 A30 RMK A01 T01310109  RH  087%=      5-min Rain = 0
KMC4 111744Z 18008KT 13/11 A30 RMK A01 T01310109  RH  087%=      5-min Rain = 0
KMC4 111745Z 18007KT 13/11 A30 RMK A01 T01310109  RH  087%=      5-min Rain = 0
KMC4 111746Z 18007KT 13/11 A3001 RMK A01 T01310109  RH  087%=      5-min Rain = 0
KMC4 111747Z 18008KT 13/11 A3001 RMK A01 T01310109  RH  087%=      5-min Rain = 0
KMC4 111748Z 18010KT 13/11 A3001 RMK A01 T01310108  RH  086%=      5-min Rain = 0
KMC4 111749Z 17009KT 13/11 A30 RMK A01 T01320108  RH  086%=      5-min Rain = 0
KMC4 111750Z 18010KT 13/11 A30 RMK A01 T01310108  RH  085%=      5-min Rain = 0
KMC4 111751Z 18008KT 13/11 A30 RMK A01 T01310108  RH  086%=      5-min Rain = 0
KMC4 111752Z 18008KT 13/11 A30 RMK A01 T01320110  RH  086%=      5-min Rain = 0
KMC4 111753Z 18009KT 13/11 A30 RMK A01 T01320109  RH  086%=      5-min Rain = 0
KMC4 111754Z 17009KT 13/11 A30 RMK A01 T01320108  RH  085%=      5-min Rain = 0
KMC4 111755Z 18009KT 13/11 A30 RMK A01 T01320109  RH  086%=      5-min Rain = 0
KMC4 111756Z 18010KT 13/11 A30 RMK A01 T01320109  RH  086%=      5-min Rain = 0
KMC4 111757Z 18010KT 13/11 A30 RMK A01 T01330109  RH  086%=      5-min Rain = 0
KMC4 111758Z 19011KT 13/11 A30 RMK A01 T01330109  RH  086%=      5-min Rain = 0
KMC4 111759Z 18008KT 13/11 A30 RMK A01 T01330109  RH  085%=      5-min Rain = 0
KMC4 111800Z 18009KT 13/11 A30 RMK A01 T01340110  RH  086%=      5-min Rain = 0
KMC4 111801Z 18007KT 13/11 A30 RMK A01 T01340111  RH  086%=      5-min Rain = 0
KMC4 111802Z 18012KT 14/11 A30 RMK A01 T01350109  RH  085%=      5-min Rain = 0
KMC4 111803Z 18011KT 13/11 A2999 RMK A01 T01340108  RH  084%=      5-min Rain = 0
KMC4 111804Z 17009KT 13/11 A2999 RMK A01 T01340109  RH  085%=      5-min Rain = 0
KMC4 111805Z 17010KT 13/11 A2999 RMK A01 T01340110  RH  085%=      5-min Rain = 0
KMC4 111806Z 17011KT 13/11 A2999 RMK A01 T01340109  RH  085%=      5-min Rain = 0
KMC4 111807Z 17010KT 13/11 A2999 RMK A01 T01340108  RH  084%=      5-min Rain = 0
KMC4 111808Z 18011KT 13/11 A2999 RMK A01 T01340109  RH  085%=      5-min Rain = 0
KMC4 111809Z 17010KT 13/11 A2999 RMK A01 T01340109  RH  085%=      5-min Rain = 0
KMC4 111810Z 17009KT 13/11 A2999 RMK A01 T01340110  RH  085%=      5-min Rain = 0
KMC4 111811Z 17010KT 14/11 A2999 RMK A01 T01350110  RH  085%=      5-min Rain = 0
KMC4 111812Z 17008KT 14/11 A2999 RMK A01 T01350110  RH  085%=      5-min Rain = 0
KMC4 111813Z 17009KT 14/11 A2998 RMK A01 T01350110  RH  085%=      5-min Rain = 0
KMC4 111814Z 17009KT 14/11 A2998 RMK A01 T01350112  RH  086%=      5-min Rain = 0
KMC4 111815Z 17010KT 14/11 A2998 RMK A01 T01350110  RH  085%=      5-min Rain = 0
KMC4 111816Z 17009KT 14/11 A2998 RMK A01 T01350110  RH  085%=      5-min Rain = 0
KMC4 111817Z 17009KT 14/11 A2998 RMK A01 T01350110  RH  085%=      5-min Rain = 0
KMC4 111818Z 18010KT 14/11 A2998 RMK A01 T01350110  RH  085%=      5-min Rain = 0
KMC4 111819Z 18008KT 14/11 A2998 RMK A01 T01350109  RH  084%=      5-min Rain = 0
KMC4 111820Z 18007KT 14/11 A2998 RMK A01 T01350110  RH  085%=      5-min Rain = 0
KMC4 111821Z 18006KT 14/11 A2998 RMK A01 T01360112  RH  086%=      5-min Rain = 0
KMC4 111822Z 17005KT 14/11 A2998 RMK A01 T01360114  RH  086%=      5-min Rain = 0
KMC4 111823Z 18006KT 14/11 A2998 RMK A01 T01370114  RH  086%=      5-min Rain = 0
KMC4 111824Z 18006KT 14/11 A2998 RMK A01 T01380113  RH  085%=      5-min Rain = 0
KMC4 111825Z 18005KT 14/12 A2998 RMK A01 T01380116  RH  086%=      5-min Rain = 0
KMC4 111826Z 18006KT 14/12 A2998 RMK A01 T01390115  RH  086%=      5-min Rain = 0
KMC4 111827Z 18007KT 14/11 A2998 RMK A01 T01390114  RH  085%=      5-min Rain = 0
KMC4 111828Z 18006KT 14/12 A2997 RMK A01 T01400115  RH  085%=      5-min Rain = 0
KMC4 111829Z 17007KT 14/12 A2997 RMK A01 T01400116  RH  086%=      5-min Rain = 0
KMC4 111830Z 17007KT 14/12 A2997 RMK A01 T01400115  RH  085%=      5-min Rain = 0
KMC4 111831Z 17009KT 14/11 A2997 RMK A01 T01400114  RH  084%=      5-min Rain = 0
KMC4 111832Z 17009KT 14/11 A2997 RMK A01 T01400112  RH  083%=      5-min Rain = 0
KMC4 111833Z 17009KT 14/11 A2997 RMK A01 T01400113  RH  084%=      5-min Rain = 0
KMC4 111834Z 17009KT 14/11 A2997 RMK A01 T01400113  RH  084%=      5-min Rain = 0
KMC4 111835Z 16009KT 14/11 A2997 RMK A01 T01400113  RH  084%=      5-min Rain = 0
KMC4 111836Z 16009KT 14/11 A2997 RMK A01 T01400113  RH  084%=      5-min Rain = 0
KMC4 111837Z 17008KT 14/11 A2997 RMK A01 T01400112  RH  083%=      5-min Rain = 0
KMC4 111838Z 17007KT 14/11 A2997 RMK A01 T01410113  RH  084%=      5-min Rain = 0
KMC4 111839Z 18007KT 14/11 A2996 RMK A01 T01420114  RH  084%=      5-min Rain = 0
KMC4 111840Z 18008KT 14/12 A2996 RMK A01 T01430116  RH  084%=      5-min Rain = 0
KMC4 111841Z 17009KT 14/12 A2996 RMK A01 T01440115  RH  083%=      5-min Rain = 0
KMC4 111842Z 17009KT 14/11 A2996 RMK A01 T01440113  RH  082%=      5-min Rain = 0
KMC4 111843Z 18009KT 14/11 A2996 RMK A01 T01440113  RH  082%=      5-min Rain = 0
KMC4 111844Z 18008KT 14/11 A2996 RMK A01 T01430112  RH  082%=      5-min Rain = 0
KMC4 111845Z 19009KT 14/11 A2996 RMK A01 T01430113  RH  082%=      5-min Rain = 0
KMC4 111846Z 17008KT 14/11 A2996 RMK A01 T01430112  RH  081%=      5-min Rain = 0
KMC4 111847Z 18009KT 14/11 A2995 RMK A01 T01440112  RH  081%=      5-min Rain = 0
KMC4 111848Z 19007KT 14/11 A2995 RMK A01 T01430113  RH  082%=      5-min Rain = 0
KMC4 111849Z 19006KT 14/12 A2995 RMK A01 T01440116  RH  083%=      5-min Rain = 0
KMC4 111850Z 18006KT 15/12 A2995 RMK A01 T01450117  RH  084%=      5-min Rain = 0
KMC4 111851Z 19007KT 15/12 A2995 RMK A01 T01460117  RH  083%=      5-min Rain = 0
KMC4 111852Z 19007KT 15/12 A2995 RMK A01 T01460116  RH  082%=      5-min Rain = 0
KMC4 111853Z 19009KT 15/12 A2995 RMK A01 T01460116  RH  082%=      5-min Rain = 0
KMC4 111854Z 18008KT 15/12 A2995 RMK A01 T01460115  RH  082%=      5-min Rain = 0
KMC4 111855Z 19006KT 15/12 A2995 RMK A01 T01460115  RH  082%=      5-min Rain = 0
KMC4 111856Z 19008KT 15/12 A2995 RMK A01 T01460116  RH  082%=      5-min Rain = 0
KMC4 111857Z 19008KT 15/11 A2995 RMK A01 T01470114  RH  081%=      5-min Rain = 0
KMC4 111858Z 19008KT 15/11 A2995 RMK A01 T01470113  RH  080%=      5-min Rain = 0
KMC4 111859Z 19008KT 15/12 A2995 RMK A01 T01470115  RH  081%=      5-min Rain = 0
KMC4 111900Z 19007KT 15/12 A2995 RMK A01 T01480115  RH  081%=      5-min Rain = 0
KMC4 111901Z 18005KT 15/12 A2995 RMK A01 T01490117  RH  082%=      5-min Rain = 0
KMC4 111902Z 19007KT 15/12 A2994 RMK A01 T01490117  RH  081%=      5-min Rain = 0
KMC4 111903Z 19009KT 15/12 A2994 RMK A01 T01500115  RH  080%=      5-min Rain = 0
KMC4 111904Z 19008KT 15/11 A2994 RMK A01 T01490113  RH  079%=      5-min Rain = 0
KMC4 111905Z 18009KT 15/11 A2994 RMK A01 T01490113  RH  079%=      5-min Rain = 0
KMC4 111906Z 18008KT 15/11 A2994 RMK A01 T01490114  RH  079%=      5-min Rain = 0
KMC4 111907Z 19006KT 15/11 A2994 RMK A01 T01490114  RH  080%=      5-min Rain = 0
KMC4 111908Z 19006KT 15/12 A2994 RMK A01 T01500116  RH  080%=      5-min Rain = 0
KMC4 111909Z 20008KT 15/11 A2994 RMK A01 T01500114  RH  079%=      5-min Rain = 0
KMC4 111910Z 20007KT 15/11 A2994 RMK A01 T01500113  RH  078%=      5-min Rain = 0
KMC4 111911Z 19008KT 15/11 A2994 RMK A01 T01500114  RH  079%=      5-min Rain = 0
KMC4 111912Z 20007KT 15/12 A2994 RMK A01 T01500115  RH  080%=      5-min Rain = 0
KMC4 111913Z 20007KT 15/12 A2994 RMK A01 T01500116  RH  080%=      5-min Rain = 0
KMC4 111914Z 20007KT 15/12 A2994 RMK A01 T01510117  RH  080%=      5-min Rain = 0
KMC4 111915Z 20008KT 15/12 A2994 RMK A01 T01510118  RH  080%=      5-min Rain = 0
KMC4 111916Z 20008KT 15/12 A2994 RMK A01 T01520115  RH  079%=      5-min Rain = 0
KMC4 111917Z 21009KT 15/11 A2994 RMK A01 T01520114  RH  078%=      5-min Rain = 0
KMC4 111918Z 20007KT 15/12 A2994 RMK A01 T01520115  RH  078%=      5-min Rain = 0
KMC4 111919Z 19008KT 15/12 A2994 RMK A01 T01520116  RH  079%=      5-min Rain = 0
KMC4 111920Z 20007KT 15/12 A2994 RMK A01 T01530116  RH  078%=      5-min Rain = 0
KMC4 111921Z 20010KT 15/11 A2994 RMK A01 T01530114  RH  078%=      5-min Rain = 0
KMC4 111922Z 19009KT 15/11 A2993 RMK A01 T01530114  RH  077%=      5-min Rain = 0
KMC4 111923Z 20010KT 15/11 A2993 RMK A01 T01530113  RH  077%=      5-min Rain = 0
KMC4 111924Z 19009KT 15/11 A2993 RMK A01 T01530112  RH  076%=      5-min Rain = 0
KMC4 111925Z 19008KT 15/11 A2993 RMK A01 T01540112  RH  076%=      5-min Rain = 0
KMC4 111926Z 19009KT 15/11 A2993 RMK A01 T01540112  RH  076%=      5-min Rain = 0
KMC4 111927Z 19008KT 16/11 A2992 RMK A01 T01550111  RH  075%=      5-min Rain = 0
KMC4 111928Z 19008KT 15/11 A2992 RMK A01 T01540113  RH  076%=      5-min Rain = 0
KMC4 111929Z 19008KT 16/11 A2992 RMK A01 T01550113  RH  076%=      5-min Rain = 0
KMC4 111930Z 19009KT 16/11 A2992 RMK A01 T01550112  RH  076%=      5-min Rain = 0
KMC4 111931Z 19007KT 16/11 A2992 RMK A01 T01550113  RH  076%=      5-min Rain = 0
KMC4 111932Z 19007KT 16/11 A2992 RMK A01 T01560114  RH  076%=      5-min Rain = 0
KMC4 111933Z 19008KT 16/12 A2992 RMK A01 T01560115  RH  076%=      5-min Rain = 0
KMC4 111934Z 19009KT 16/11 A2992 RMK A01 T01560113  RH  076%=      5-min Rain = 0
KMC4 111935Z 20009KT 16/11 A2992 RMK A01 T01560113  RH  075%=      5-min Rain = 0
KMC4 111936Z 19009KT 16/11 A2992 RMK A01 T01550112  RH  075%=      5-min Rain = 0
KMC4 111937Z 19008KT 16/11 A2992 RMK A01 T01550112  RH  076%=      5-min Rain = 0
KMC4 111938Z 20008KT 16/11 A2992 RMK A01 T01550113  RH  076%=      5-min Rain = 0
KMC4 111939Z 20009KT 16/11 A2992 RMK A01 T01550113  RH  076%=      5-min Rain = 0
KMC4 111940Z 19009KT 16/11 A2992 RMK A01 T01550112  RH  076%=      5-min Rain = 0
KMC4 111941Z 19009KT 16/11 A2992 RMK A01 T01550113  RH  076%=      5-min Rain = 0
KMC4 111942Z 19008KT 16/11 A2992 RMK A01 T01550114  RH  076%=      5-min Rain = 0
KMC4 111943Z 21007KT 16/11 A2992 RMK A01 T01550114  RH  077%=      5-min Rain = 0
KMC4 111944Z 20008KT 16/12 A2992 RMK A01 T01550115  RH  077%=      5-min Rain = 0
KMC4 111945Z 19008KT 16/12 A2992 RMK A01 T01560117  RH  077%=      5-min Rain = 0
KMC4 111946Z 19008KT 16/12 A2991 RMK A01 T01560115  RH  077%=      5-min Rain = 0
KMC4 111947Z 20008KT 16/11 A2991 RMK A01 T01560114  RH  076%=      5-min Rain = 0
KMC4 111948Z 21007KT 16/12 A2991 RMK A01 T01560115  RH  076%=      5-min Rain = 0
KMC4 111949Z 22007KT 16/12 A2991 RMK A01 T01560115  RH  077%=      5-min Rain = 0
KMC4 111950Z 21007KT 16/11 A2991 RMK A01 T01560113  RH  076%=      5-min Rain = 0
KMC4 111951Z 20007KT 16/12 A2991 RMK A01 T01560115  RH  076%=      5-min Rain = 0
KMC4 111952Z 20007KT 16/12 A2991 RMK A01 T01560115  RH  076%=      5-min Rain = 0
KMC4 111953Z 20007KT 16/12 A2991 RMK A01 T01570115  RH  076%=      5-min Rain = 0
KMC4 111954Z 20006KT 16/12 A2991 RMK A01 T01570115  RH  076%=      5-min Rain = 0
KMC4 111955Z 20004KT 16/12 A2991 RMK A01 T01570118  RH  077%=      5-min Rain = 0
KMC4 111956Z 20006KT 16/12 A2991 RMK A01 T01580117  RH  076%=      5-min Rain = 0
KMC4 111957Z 21005KT 16/12 A2991 RMK A01 T01580116  RH  076%=      5-min Rain = 0
KMC4 111958Z 23004KT 16/12 A2991 RMK A01 T01580117  RH  076%=      5-min Rain = 0
KMC4 111959Z 19006KT 16/12 A2991 RMK A01 T01590117  RH  076%=      5-min Rain = 0
KMC4 112000Z 20005KT 16/12 A2991 RMK A01 T01590116  RH  076%=      5-min Rain = 0
KMC4 112001Z 20007KT 16/12 A2991 RMK A01 T01590116  RH  076%=      5-min Rain = 0
KMC4 112002Z 21006KT 16/12 A2991 RMK A01 T01600116  RH  075%=      5-min Rain = 0
KMC4 112003Z 21006KT 16/12 A2991 RMK A01 T01600116  RH  075%=      5-min Rain = 0
KMC4 112004Z 22006KT 16/12 A2991 RMK A01 T01600117  RH  076%=      5-min Rain = 0
KMC4 112005Z 23005KT 16/11 A2991 RMK A01 T01610114  RH  074%=      5-min Rain = 0
KMC4 112006Z 22006KT 16/11 A2991 RMK A01 T01610111  RH  072%=      5-min Rain = 0
KMC4 112007Z 21006KT 16/11 A2991 RMK A01 T01620111  RH  072%=      5-min Rain = 0
KMC4 112008Z 21006KT 16/11 A2991 RMK A01 T01620114  RH  073%=      5-min Rain = 0
KMC4 112009Z 20006KT 16/12 A2991 RMK A01 T01630117  RH  075%=      5-min Rain = 0
KMC4 112010Z 22006KT 16/12 A2991 RMK A01 T01630117  RH  074%=      5-min Rain = 0
KMC4 112011Z 22004KT 16/12 A2991 RMK A01 T01630117  RH  074%=      5-min Rain = 0
KMC4 112012Z 21005KT 16/12 A2991 RMK A01 T01640117  RH  074%=      5-min Rain = 0
KMC4 112013Z 21006KT 16/12 A2991 RMK A01 T01640118  RH  074%=      5-min Rain = 0
KMC4 112014Z 22007KT 16/11 A2991 RMK A01 T01640114  RH  072%=      5-min Rain = 0
KMC4 112015Z 22005KT 16/11 A2991 RMK A01 T01640113  RH  072%=      5-min Rain = 0
KMC4 112016Z 21006KT 17/11 A2991 RMK A01 T01650112  RH  071%=      5-min Rain = 0
KMC4 112017Z 23008KT 17/11 A2991 RMK A01 T01650110  RH  070%=      5-min Rain = 0
KMC4 112018Z 25005KT 17/11 A2991 RMK A01 T01650109  RH  069%=      5-min Rain = 0
KMC4 112019Z 24007KT 17/11 A2991 RMK A01 T01660109  RH  069%=      5-min Rain = 0
KMC4 112020Z 24008KT 17/11 A2991 RMK A01 T01660108  RH  069%=      5-min Rain = 0
KMC4 112021Z 23007KT 17/11 A2991 RMK A01 T01660109  RH  069%=      5-min Rain = 0
KMC4 112022Z 22007KT 17/11 A299 RMK A01 T01660107  RH  068%=      5-min Rain = 0
KMC4 112023Z 22007KT 17/11 A299 RMK A01 T01660107  RH  068%=      5-min Rain = 0
KMC4 112024Z 23005KT 17/11 A2991 RMK A01 T01660106  RH  067%=      5-min Rain = 0
KMC4 112025Z 23004KT 17/11 A2991 RMK A01 T01660107  RH  068%=      5-min Rain = 0
KMC4 112026Z 25005KT 17/11 A2991 RMK A01 T01670108  RH  068%=      5-min Rain = 0
KMC4 112027Z 25006KT 17/11 A2991 RMK A01 T01670107  RH  067%=      5-min Rain = 0
KMC4 112028Z 25007KT 17/11 A2991 RMK A01 T01680107  RH  067%=      5-min Rain = 0
KMC4 112029Z 26006KT 17/10 A2991 RMK A01 T01680103  RH  066%=      5-min Rain = 0
KMC4 112030Z 23006KT 17/10 A2991 RMK A01 T01680104  RH  066%=      5-min Rain = 0
KMC4 112031Z 24008KT 17/10 A2991 RMK A01 T01690102  RH  065%=      5-min Rain = 0
KMC4 112032Z 25007KT 17/10 A2991 RMK A01 T01690097  RH  063%=      5-min Rain = 0
KMC4 112033Z 24006KT 17/10 A2991 RMK A01 T01690099  RH  063%=      5-min Rain = 0
KMC4 112034Z 23006KT 17/10 A2991 RMK A01 T01700104  RH  065%=      5-min Rain = 0
KMC4 112035Z 23006KT 17/11 A2991 RMK A01 T01700105  RH  065%=      5-min Rain = 0
KMC4 112036Z 23004KT 17/11 A2991 RMK A01 T01700107  RH  066%=      5-min Rain = 0
KMC4 112037Z 23006KT 17/11 A2991 RMK A01 T01700110  RH  067%=      5-min Rain = 0
KMC4 112038Z 24005KT 17/10 A299 RMK A01 T01710104  RH  065%=      5-min Rain = 0
KMC4 112039Z 24006KT 17/11 A299 RMK A01 T01710106  RH  066%=      5-min Rain = 0
KMC4 112040Z 22006KT 17/11 A299 RMK A01 T01710106  RH  066%=      5-min Rain = 0
KMC4 112041Z 24008KT 17/10 A299 RMK A01 T01710100  RH  063%=      5-min Rain = 0
KMC4 112042Z 23009KT 17/10 A299 RMK A01 T01720096  RH  061%=      5-min Rain = 0
KMC4 112043Z 24008KT 17/09 A299 RMK A01 T01720093  RH  060%=      5-min Rain = 0
KMC4 112044Z 23008KT 17/09 A299 RMK A01 T01720094  RH  060%=      5-min Rain = 0
KMC4 112045Z 24009KT 17/09 A299 RMK A01 T01720094  RH  060%=      5-min Rain = 0
KMC4 112046Z 24007KT 17/09 A299 RMK A01 T01730093  RH  059%=      5-min Rain = 0
KMC4 112047Z 24007KT 17/09 A299 RMK A01 T01730094  RH  060%=      5-min Rain = 0
KMC4 112048Z 23008KT 17/10 A299 RMK A01 T01730098  RH  061%=      5-min Rain = 0
KMC4 112049Z 23010KT 17/09 A299 RMK A01 T01730094  RH  060%=      5-min Rain = 0
KMC4 112050Z 24008KT 17/09 A299 RMK A01 T01730090  RH  058%=      5-min Rain = 0
KMC4 112051Z 26006KT 17/09 A299 RMK A01 T01730093  RH  059%=      5-min Rain = 0
KMC4 112052Z 26008KT 17/10 A299 RMK A01 T01730096  RH  060%=      5-min Rain = 0
KMC4 112053Z 24009KT 17/10 A299 RMK A01 T01730103  RH  063%=      5-min Rain = 0
KMC4 112054Z 22009KT 17/11 A299 RMK A01 T01720106  RH  065%=      5-min Rain = 0
KMC4 112055Z 22008KT 17/11 A299 RMK A01 T01710106  RH  065%=      5-min Rain = 0
KMC4 112056Z 22006KT 17/11 A299 RMK A01 T01700106  RH  066%=      5-min Rain = 0
KMC4 112057Z 22007KT 17/11 A299 RMK A01 T01700106  RH  066%=      5-min Rain = 0
KMC4 112058Z 22006KT 17/10 A299 RMK A01 T01700104  RH  065%=      5-min Rain = 0
KMC4 112059Z 21006KT 17/11 A299 RMK A01 T01720105  RH  065%=      5-min Rain = 0
KMC4 112100Z 24008KT 18/11 A299 RMK A01 T01750106  RH  064%=      5-min Rain = 0
KMC4 112101Z 23007KT 18/10 A299 RMK A01 T01770102  RH  061%=      5-min Rain = 0
KMC4 112102Z 23007KT 18/10 A299 RMK A01 T01780098  RH  059%=      5-min Rain = 0
KMC4 112103Z 25007KT 18/10 A299 RMK A01 T01790101  RH  060%=      5-min Rain = 0
KMC4 112104Z 26011KT 18/10 A299 RMK A01 T01820097  RH  058%=      5-min Rain = 0
KMC4 112105Z 26010KT 18/09 A299 RMK A01 T01820093  RH  056%=      5-min Rain = 0
KMC4 112106Z 25011KT 18/09 A299 RMK A01 T01820094  RH  056%=      5-min Rain = 0
KMC4 112107Z 25010KT 18/09 A299 RMK A01 T01820091  RH  055%=      5-min Rain = 0
KMC4 112108Z 25010KT 18/09 A299 RMK A01 T01810093  RH  056%=      5-min Rain = 0
KMC4 112109Z 25008KT 18/09 A299 RMK A01 T01800093  RH  057%=      5-min Rain = 0
KMC4 112110Z 25009KT 18/10 A299 RMK A01 T01790095  RH  058%=      5-min Rain = 0
KMC4 112111Z 25010KT 18/09 A299 RMK A01 T01790092  RH  057%=      5-min Rain = 0
KMC4 112112Z 26009KT 18/09 A299 RMK A01 T01780091  RH  057%=      5-min Rain = 0
KMC4 112113Z 24008KT 18/09 A299 RMK A01 T01780092  RH  057%=      5-min Rain = 0
KMC4 112114Z 25010KT 18/09 A299 RMK A01 T01790093  RH  057%=      5-min Rain = 0
KMC4 112115Z 24011KT 18/09 A299 RMK A01 T01810092  RH  056%=      5-min Rain = 0
KMC4 112116Z 24010KT 18/09 A299 RMK A01 T01820092  RH  056%=      5-min Rain = 0
KMC4 112117Z 24011G16KT 18/09 A299 RMK A01 T01830092  RH  055%=      5-min Rain = 0
KMC4 112118Z 25012KT 18/09 A2989 RMK A01 T01840089  RH  054%=      5-min Rain = 0
KMC4 112119Z 24012KT 18/09 A2989 RMK A01 T01830089  RH  054%=      5-min Rain = 0
KMC4 112120Z 24009KT 18/09 A2989 RMK A01 T01810090  RH  055%=      5-min Rain = 0
KMC4 112121Z 22011KT 18/09 A2989 RMK A01 T01810092  RH  056%=      5-min Rain = 0
KMC4 112122Z 24009KT 18/09 A2989 RMK A01 T01800088  RH  055%=      5-min Rain = 0
KMC4 112123Z 23008KT 18/09 A2989 RMK A01 T01790089  RH  056%=      5-min Rain = 0
KMC4 112124Z 23007KT 18/09 A2989 RMK A01 T01780090  RH  056%=      5-min Rain = 0
KMC4 112125Z 24007KT 18/09 A2989 RMK A01 T01780091  RH  057%=      5-min Rain = 0
KMC4 112126Z 25009KT 18/09 A2989 RMK A01 T01780094  RH  058%=      5-min Rain = 0
KMC4 112127Z 25011KT 18/09 A2989 RMK A01 T01780089  RH  056%=      5-min Rain = 0
KMC4 112128Z 25013KT 18/09 A2989 RMK A01 T01770088  RH  056%=      5-min Rain = 0
KMC4 112129Z 25012KT 18/09 A2989 RMK A01 T01760088  RH  056%=      5-min Rain = 0
KMC4 112130Z 25010KT 18/09 A2989 RMK A01 T01760087  RH  056%=      5-min Rain = 0
KMC4 112131Z 24009KT 18/09 A2989 RMK A01 T01770090  RH  057%=      5-min Rain = 0
KMC4 112132Z 24009KT 18/09 A2989 RMK A01 T01780089  RH  056%=      5-min Rain = 0
KMC4 112133Z 24009KT 18/09 A2989 RMK A01 T01780089  RH  056%=      5-min Rain = 0
KMC4 112134Z 23007KT 18/09 A2989 RMK A01 T01790091  RH  056%=      5-min Rain = 0
KMC4 112135Z 23007KT 18/09 A2989 RMK A01 T01800093  RH  057%=      5-min Rain = 0
KMC4 112136Z 24009KT 18/09 A2989 RMK A01 T01800091  RH  056%=      5-min Rain = 0
KMC4 112137Z 23010KT 18/09 A2989 RMK A01 T01800088  RH  055%=      5-min Rain = 0
KMC4 112138Z 22009KT 18/09 A2989 RMK A01 T01790089  RH  056%=      5-min Rain = 0
KMC4 112139Z 22012KT 18/09 A2989 RMK A01 T01780089  RH  056%=      5-min Rain = 0
KMC4 112140Z 21009KT 18/09 A2989 RMK A01 T01780087  RH  055%=      5-min Rain = 0
KMC4 112141Z 21007KT 18/09 A2989 RMK A01 T01780087  RH  055%=      5-min Rain = 0
KMC4 112142Z 23006KT 18/09 A2989 RMK A01 T01770088  RH  056%=      5-min Rain = 0
KMC4 112143Z 22008KT 18/09 A2989 RMK A01 T01770090  RH  056%=      5-min Rain = 0
KMC4 112144Z 22007KT 18/09 A2989 RMK A01 T01780092  RH  057%=      5-min Rain = 0
KMC4 112145Z 22007KT 18/09 A2989 RMK A01 T01780093  RH  058%=      5-min Rain = 0
KMC4 112146Z 23007KT 18/09 A2989 RMK A01 T01790094  RH  057%=      5-min Rain = 0
KMC4 112147Z 24007KT 18/09 A2989 RMK A01 T01810091  RH  056%=      5-min Rain = 0
KMC4 112148Z 23009KT 18/09 A2989 RMK A01 T01820091  RH  055%=      5-min Rain = 0
KMC4 112149Z 23009KT 18/09 A2989 RMK A01 T01820088  RH  054%=      5-min Rain = 0
KMC4 112150Z 23010KT 18/09 A2989 RMK A01 T01820088  RH  054%=      5-min Rain = 0
KMC4 112151Z 23011KT 18/09 A2989 RMK A01 T01810088  RH  055%=      5-min Rain = 0
KMC4 112152Z 23010KT 18/09 A2989 RMK A01 T01800090  RH  055%=      5-min Rain = 0
KMC4 112153Z 22010KT 18/09 A2989 RMK A01 T01790087  RH  055%=      5-min Rain = 0
KMC4 112154Z 22009KT 18/09 A2989 RMK A01 T01780090  RH  056%=      5-min Rain = 0
KMC4 112155Z 23008KT 18/09 A2989 RMK A01 T01780089  RH  056%=      5-min Rain = 0
KMC4 112156Z 23008KT 18/09 A2989 RMK A01 T01780088  RH  056%=      5-min Rain = 0
KMC4 112157Z 22008KT 18/09 A2989 RMK A01 T01770089  RH  056%=      5-min Rain = 0
KMC4 112158Z 24007KT 18/09 A2989 RMK A01 T01770092  RH  057%=      5-min Rain = 0
KMC4 112159Z 24006KT 18/09 A2989 RMK A01 T01770091  RH  057%=      5-min Rain = 0
KMC4 112200Z 24008KT 18/09 A2989 RMK A01 T01770092  RH  057%=      5-min Rain = 0
KMC4 112201Z 24009KT 18/09 A2989 RMK A01 T01770090  RH  057%=      5-min Rain = 0
KMC4 112202Z 23007KT 18/09 A2989 RMK A01 T01780090  RH  056%=      5-min Rain = 0
KMC4 112203Z 24008KT 18/09 A2989 RMK A01 T01780091  RH  057%=      5-min Rain = 0
KMC4 112204Z 24008KT 18/09 A2989 RMK A01 T01780088  RH  056%=      5-min Rain = 0
KMC4 112205Z 22008KT 18/09 A2989 RMK A01 T01780090  RH  056%=      5-min Rain = 0
KMC4 112206Z 22008KT 18/09 A2989 RMK A01 T01780085  RH  055%=      5-min Rain = 0
KMC4 112207Z 22006KT 18/09 A2989 RMK A01 T01780086  RH  055%=      5-min Rain = 0
KMC4 112208Z 24008KT 18/09 A2989 RMK A01 T01790088  RH  055%=      5-min Rain = 0
KMC4 112209Z 23007KT 18/09 A2989 RMK A01 T01790088  RH  055%=      5-min Rain = 0
KMC4 112210Z 24007KT 18/09 A2989 RMK A01 T01790091  RH  056%=      5-min Rain = 0
KMC4 112211Z 24011KT 18/09 A2989 RMK A01 T01790089  RH  055%=      5-min Rain = 0
KMC4 112212Z 24012KT 18/08 A2989 RMK A01 T01790083  RH  053%=      5-min Rain = 0
KMC4 112213Z 25011KT 18/09 A2989 RMK A01 T01800085  RH  054%=      5-min Rain = 0
KMC4 112214Z 25011KT 18/08 A2989 RMK A01 T01800084  RH  053%=      5-min Rain = 0
KMC4 112215Z 25011KT 18/08 A2989 RMK A01 T01800084  RH  054%=      5-min Rain = 0
KMC4 112216Z 25011KT 18/09 A2989 RMK A01 T01800086  RH  054%=      5-min Rain = 0
KMC4 112217Z 26013KT 18/08 A2989 RMK A01 T01800084  RH  053%=      5-min Rain = 0
KMC4 112218Z 25012KT 18/08 A2989 RMK A01 T01800083  RH  053%=      5-min Rain = 0
KMC4 112219Z 26012KT 18/08 A2988 RMK A01 T01800081  RH  052%=      5-min Rain = 0
KMC4 112220Z 26011KT 18/08 A2988 RMK A01 T01800083  RH  053%=      5-min Rain = 0
KMC4 112221Z 26012KT 18/08 A2988 RMK A01 T01800081  RH  053%=      5-min Rain = 0
KMC4 112222Z 26011KT 18/08 A2988 RMK A01 T01800082  RH  053%=      5-min Rain = 0
KMC4 112223Z 26012KT 18/08 A2988 RMK A01 T01800081  RH  052%=      5-min Rain = 0
KMC4 112224Z 25011KT 18/08 A2988 RMK A01 T01800082  RH  053%=      5-min Rain = 0
KMC4 112225Z 25010KT 18/08 A2988 RMK A01 T01800082  RH  053%=      5-min Rain = 0
KMC4 112226Z 25010KT 18/08 A2988 RMK A01 T01800082  RH  053%=      5-min Rain = 0
KMC4 112227Z 25010KT 18/09 A2988 RMK A01 T01800085  RH  054%=      5-min Rain = 0
KMC4 112228Z 25011KT 18/08 A2988 RMK A01 T01800083  RH  053%=      5-min Rain = 0
KMC4 112229Z 25011KT 18/08 A2988 RMK A01 T01800082  RH  053%=      5-min Rain = 0
KMC4 112230Z 26009KT 18/08 A2988 RMK A01 T01810082  RH  053%=      5-min Rain = 0
KMC4 112231Z 26010KT 18/08 A2988 RMK A01 T01810083  RH  053%=      5-min Rain = 0
KMC4 112232Z 26014KT 18/08 A2988 RMK A01 T01810079  RH  051%=      5-min Rain = 0
KMC4 112233Z 25011KT 18/08 A2988 RMK A01 T01810080  RH  052%=      5-min Rain = 0
KMC4 112234Z 25010KT 18/08 A2988 RMK A01 T01810084  RH  053%=      5-min Rain = 0
KMC4 112235Z 26014KT 18/08 A2988 RMK A01 T01800083  RH  053%=      5-min Rain = 0
KMC4 112236Z 25012KT 18/08 A2988 RMK A01 T01810080  RH  052%=      5-min Rain = 0
KMC4 112237Z 26011KT 18/08 A2988 RMK A01 T01810082  RH  052%=      5-min Rain = 0
KMC4 112238Z 25011KT 18/09 A2988 RMK A01 T01820085  RH  053%=      5-min Rain = 0
KMC4 112239Z 26012KT 18/08 A2988 RMK A01 T01820083  RH  052%=      5-min Rain = 0
KMC4 112240Z 25012KT 18/08 A2988 RMK A01 T01830084  RH  052%=      5-min Rain = 0
KMC4 112241Z 25013KT 18/08 A2988 RMK A01 T01830081  RH  051%=      5-min Rain = 0
KMC4 112242Z 25012KT 18/08 A2988 RMK A01 T01840079  RH  050%=      5-min Rain = 0
KMC4 112243Z 25013KT 19/08 A2988 RMK A01 T01850079  RH  050%=      5-min Rain = 0
KMC4 112244Z 25011KT 19/08 A2988 RMK A01 T01850078  RH  050%=      5-min Rain = 0
KMC4 112245Z 26010KT 18/08 A2988 RMK A01 T01840080  RH  050%=      5-min Rain = 0
KMC4 112246Z 26013G19KT 18/08 A2988 RMK A01 T01840081  RH  051%=      5-min Rain = 0
KMC4 112247Z 26015KT 18/07 A2988 RMK A01 T01840068  RH  047%=      5-min Rain = 0
KMC4 112248Z 26014KT 18/07 A2988 RMK A01 T01840067  RH  046%=      5-min Rain = 0
KMC4 112249Z 26013KT 19/07 A2988 RMK A01 T01860066  RH  046%=      5-min Rain = 0
KMC4 112250Z 27013KT 19/07 A2988 RMK A01 T01860066  RH  045%=      5-min Rain = 0
KMC4 112251Z 26013KT 19/07 A2988 RMK A01 T01860066  RH  045%=      5-min Rain = 0
KMC4 112252Z 26014KT 19/07 A2988 RMK A01 T01850066  RH  046%=      5-min Rain = 0
KMC4 112253Z 26014KT 19/07 A2988 RMK A01 T01850065  RH  045%=      5-min Rain = 0
KMC4 112254Z 26015KT 19/06 A2988 RMK A01 T01850061  RH  044%=      5-min Rain = 0
KMC4 112255Z 27012KT 19/06 A2988 RMK A01 T01860063  RH  045%=      5-min Rain = 0
KMC4 112256Z 26011KT 19/07 A2989 RMK A01 T01860066  RH  046%=      5-min Rain = 0
KMC4 112257Z 27012KT 19/07 A2989 RMK A01 T01870068  RH  046%=      5-min Rain = 0
KMC4 112258Z 27010KT 19/07 A2989 RMK A01 T01870069  RH  046%=      5-min Rain = 0
KMC4 112259Z 27010KT 19/07 A2989 RMK A01 T01870069  RH  046%=      5-min Rain = 0
KMC4 112300Z 27011KT 19/07 A2989 RMK A01 T01870067  RH  046%=      5-min Rain = 0
KMC4 112301Z 26010KT 19/07 A2989 RMK A01 T01870068  RH  046%=      5-min Rain = 0
KMC4 112302Z 26011KT 19/06 A2989 RMK A01 T01860064  RH  045%=      5-min Rain = 0
KMC4 112303Z 26012KT 19/06 A2989 RMK A01 T01850063  RH  045%=      5-min Rain = 0
KMC4 112304Z 26010KT 18/06 A2989 RMK A01 T01840064  RH  045%=      5-min Rain = 0
KMC4 112305Z 26008KT 18/07 A2989 RMK A01 T01840070  RH  047%=      5-min Rain = 0
KMC4 112306Z 26011KT 18/07 A2989 RMK A01 T01830066  RH  046%=      5-min Rain = 0
KMC4 112307Z 26010KT 18/06 A2989 RMK A01 T01830063  RH  045%=      5-min Rain = 0
KMC4 112308Z 25009KT 18/07 A2989 RMK A01 T01840065  RH  046%=      5-min Rain = 0
KMC4 112309Z 25008KT 18/07 A2989 RMK A01 T01840068  RH  047%=      5-min Rain = 0
KMC4 112310Z 26009KT 18/07 A2989 RMK A01 T01840067  RH  046%=      5-min Rain = 0
KMC4 112311Z 26011KT 19/07 A2989 RMK A01 T01850065  RH  045%=      5-min Rain = 0
KMC4 112312Z 26010KT 19/06 A2989 RMK A01 T01860064  RH  045%=      5-min Rain = 0
KMC4 112313Z 26011KT 19/06 A2988 RMK A01 T01850063  RH  045%=      5-min Rain = 0
KMC4 112314Z 26009KT 19/07 A2989 RMK A01 T01860066  RH  045%=      5-min Rain = 0
KMC4 112315Z 26012KT 19/06 A2989 RMK A01 T01860063  RH  045%=      5-min Rain = 0
KMC4 112316Z 26010KT 19/07 A2989 RMK A01 T01860066  RH  045%=      5-min Rain = 0
KMC4 112317Z 26010KT 19/07 A2989 RMK A01 T01850066  RH  046%=      5-min Rain = 0
KMC4 112318Z 26009KT 18/07 A2989 RMK A01 T01840066  RH  046%=      5-min Rain = 0
KMC4 112319Z 26009KT 18/07 A2989 RMK A01 T01840067  RH  046%=      5-min Rain = 0
KMC4 112320Z 26008KT 18/07 A2989 RMK A01 T01840067  RH  046%=      5-min Rain = 0
KMC4 112321Z 25010KT 18/06 A2989 RMK A01 T01840064  RH  045%=      5-min Rain = 0
KMC4 112322Z 27011KT 19/06 A2989 RMK A01 T01850061  RH  044%=      5-min Rain = 0
KMC4 112323Z 26011KT 19/06 A2989 RMK A01 T01850058  RH  043%=      5-min Rain = 0
KMC4 112324Z 26010KT 19/06 A2989 RMK A01 T01850059  RH  044%=      5-min Rain = 0
KMC4 112325Z 26009KT 19/06 A2989 RMK A01 T01850061  RH  044%=      5-min Rain = 0
KMC4 112326Z 26010KT 19/06 A2989 RMK A01 T01850056  RH  043%=      5-min Rain = 0
KMC4 112327Z 26011KT 19/06 A2989 RMK A01 T01850055  RH  043%=      5-min Rain = 0
KMC4 112328Z 26011KT 18/05 A2989 RMK A01 T01840053  RH  042%=      5-min Rain = 0
KMC4 112329Z 26011KT 18/05 A2989 RMK A01 T01840049  RH  041%=      5-min Rain = 0
KMC4 112330Z 26010KT 18/05 A2989 RMK A01 T01840052  RH  042%=      5-min Rain = 0
KMC4 112331Z 26010KT 18/05 A2989 RMK A01 T01840050  RH  041%=      5-min Rain = 0
KMC4 112332Z 26012KT 18/05 A2989 RMK A01 T01840048  RH  041%=      5-min Rain = 0
KMC4 112333Z 26012KT 18/05 A2989 RMK A01 T01840048  RH  041%=      5-min Rain = 0
KMC4 112334Z 26012KT 18/05 A2989 RMK A01 T01840047  RH  040%=      5-min Rain = 0
KMC4 112335Z 26011KT 18/05 A2989 RMK A01 T01830047  RH  041%=      5-min Rain = 0
KMC4 112336Z 26011KT 18/05 A2989 RMK A01 T01820048  RH  041%=      5-min Rain = 0
KMC4 112337Z 25009KT 18/05 A2989 RMK A01 T01820049  RH  042%=      5-min Rain = 0
KMC4 112338Z 26010KT 18/05 A2989 RMK A01 T01810051  RH  042%=      5-min Rain = 0
KMC4 112339Z 25009KT 18/05 A2989 RMK A01 T01800048  RH  042%=      5-min Rain = 0
KMC4 112340Z 25009KT 18/05 A2989 RMK A01 T01800050  RH  042%=      5-min Rain = 0
KMC4 112341Z 25009KT 18/05 A2989 RMK A01 T01790051  RH  043%=      5-min Rain = 0
KMC4 112342Z 25009KT 18/05 A2989 RMK A01 T01790049  RH  042%=      5-min Rain = 0
KMC4 112343Z 26008KT 18/05 A2989 RMK A01 T01790052  RH  043%=      5-min Rain = 0
KMC4 112344Z 25009KT 18/05 A2989 RMK A01 T01780052  RH  043%=      5-min Rain = 0
KMC4 112345Z 25009KT 18/05 A2989 RMK A01 T01770051  RH  043%=      5-min Rain = 0
KMC4 112346Z 25008KT 18/05 A2989 RMK A01 T01770051  RH  044%=      5-min Rain = 0
KMC4 112347Z 25007KT 18/06 A2989 RMK A01 T01760055  RH  045%=      5-min Rain = 0
KMC4 112348Z 26008KT 18/05 A2989 RMK A01 T01750053  RH  045%=      5-min Rain = 0
KMC4 112349Z 26007KT 18/05 A2989 RMK A01 T01750053  RH  044%=      5-min Rain = 0
KMC4 112350Z 26008KT 17/06 A2989 RMK A01 T01740055  RH  045%=      5-min Rain = 0
KMC4 112351Z 26007KT 17/05 A2989 RMK A01 T01730053  RH  045%=      5-min Rain = 0
KMC4 112352Z 26007KT 17/06 A2989 RMK A01 T01730056  RH  046%=      5-min Rain = 0
KMC4 112353Z 27008KT 17/06 A299 RMK A01 T01710056  RH  046%=      5-min Rain = 0
KMC4 112354Z 27009KT 17/05 A2989 RMK A01 T01710052  RH  046%=      5-min Rain = 0
KMC4 112355Z 27009KT 17/06 A299 RMK A01 T01710055  RH  046%=      5-min Rain = 0
KMC4 112356Z 27009KT 17/06 A299 RMK A01 T01710055  RH  046%=      5-min Rain = 0
KMC4 112357Z 28008KT 17/06 A299 RMK A01 T01700057  RH  047%=      5-min Rain = 0
KMC4 112358Z 28008KT 17/06 A299 RMK A01 T01670058  RH  049%=      5-min Rain = 0
KMC4 112359Z 28008KT 17/06 A299 RMK A01 T01660057  RH  049%=      5-min Rain = 0
KMC4 120000Z 28010KT 17/06 A299 RMK A01 T01650057  RH  049%=      5-min Rain = 0
KMC4 120001Z 28009KT 17/05 A299 RMK A01 T01650054  RH  048%=      5-min Rain = 0
KMC4 120002Z 27007KT 17/05 A299 RMK A01 T01650054  RH  048%=      5-min Rain = 0
KMC4 120003Z 27007KT 16/06 A299 RMK A01 T01640056  RH  049%=      5-min Rain = 0
KMC4 120004Z 27007KT 16/06 A299 RMK A01 T01630057  RH  049%=      5-min Rain = 0
KMC4 120005Z 27007KT 16/06 A299 RMK A01 T01610057  RH  050%=      5-min Rain = 0
KMC4 120006Z 27007KT 16/06 A299 RMK A01 T01600058  RH  051%=      5-min Rain = 0
KMC4 120007Z 27007KT 16/06 A299 RMK A01 T01580058  RH  051%=      5-min Rain = 0
KMC4 120008Z 27007KT 16/06 A299 RMK A01 T01570056  RH  051%=      5-min Rain = 0
KMC4 120009Z 27007KT 16/05 A299 RMK A01 T01570054  RH  050%=      5-min Rain = 0
KMC4 120010Z 27007KT 16/05 A299 RMK A01 T01570054  RH  050%=      5-min Rain = 0
KMC4 120011Z 27007KT 16/05 A299 RMK A01 T01570054  RH  050%=      5-min Rain = 0
KMC4 120012Z 27007KT 16/05 A299 RMK A01 T01570053  RH  050%=      5-min Rain = 0
KMC4 120013Z 27006KT 16/05 A299 RMK A01 T01570054  RH  051%=      5-min Rain = 0
KMC4 120014Z 27006KT 16/06 A299 RMK A01 T01550055  RH  051%=      5-min Rain = 0
KMC4 120015Z 27006KT 15/05 A299 RMK A01 T01540054  RH  051%=      5-min Rain = 0
KMC4 120016Z 27007KT 15/05 A299 RMK A01 T01530053  RH  051%=      5-min Rain = 0
KMC4 120017Z 28007KT 15/05 A299 RMK A01 T01530050  RH  050%=      5-min Rain = 0
KMC4 120018Z 28007KT 15/05 A299 RMK A01 T01530049  RH  050%=      5-min Rain = 0
KMC4 120019Z 27007KT 15/05 A299 RMK A01 T01540049  RH  050%=      5-min Rain = 0
KMC4 120020Z 27007KT 15/05 A299 RMK A01 T01540049  RH  050%=      5-min Rain = 0
KMC4 120021Z 27007KT 15/05 A299 RMK A01 T01530049  RH  050%=      5-min Rain = 0
KMC4 120022Z 27007KT 15/05 A299 RMK A01 T01520051  RH  051%=      5-min Rain = 0
KMC4 120023Z 27007KT 15/05 A299 RMK A01 T01500052  RH  052%=      5-min Rain = 0
KMC4 120024Z 27007KT 15/05 A299 RMK A01 T01480050  RH  052%=      5-min Rain = 0
KMC4 120025Z 27007KT 15/05 A299 RMK A01 T01470049  RH  052%=      5-min Rain = 0
KMC4 120026Z 27006KT 15/05 A299 RMK A01 T01480048  RH  051%=      5-min Rain = 0
KMC4 120027Z 27006KT 15/05 A299 RMK A01 T01470050  RH  052%=      5-min Rain = 0
KMC4 120028Z 27006KT 15/05 A299 RMK A01 T01460050  RH  052%=      5-min Rain = 0
KMC4 120029Z 27006KT 15/05 A299 RMK A01 T01450050  RH  053%=      5-min Rain = 0
KMC4 120030Z 26006KT 14/05 A299 RMK A01 T01440050  RH  053%=      5-min Rain = 0
KMC4 120031Z 26006KT 14/05 A2991 RMK A01 T01430050  RH  054%=      5-min Rain = 0
KMC4 120032Z 26005KT 14/05 A2991 RMK A01 T01420050  RH  054%=      5-min Rain = 0
KMC4 120033Z 26005KT 14/05 A2991 RMK A01 T01410051  RH  054%=      5-min Rain = 0
KMC4 120034Z 27005KT 14/05 A2991 RMK A01 T01400052  RH  055%=      5-min Rain = 0
KMC4 120035Z 27005KT 14/05 A2991 RMK A01 T01390052  RH  056%=      5-min Rain = 0
KMC4 120036Z 27004KT 14/06 A2991 RMK A01 T01380055  RH  057%=      5-min Rain = 0
KMC4 120037Z 27004KT 14/05 A2991 RMK A01 T01370054  RH  057%=      5-min Rain = 0
KMC4 120038Z 28004KT 14/05 A2991 RMK A01 T01360052  RH  056%=      5-min Rain = 0
KMC4 120039Z 28004KT 14/05 A2991 RMK A01 T01360050  RH  056%=      5-min Rain = 0
KMC4 120040Z 28005KT 14/05 A2991 RMK A01 T01370050  RH  056%=      5-min Rain = 0
KMC4 120041Z 28005KT 14/05 A2991 RMK A01 T01370050  RH  056%=      5-min Rain = 0
KMC4 120042Z 28004KT 14/05 A2991 RMK A01 T01370049  RH  055%=      5-min Rain = 0
KMC4 120043Z 28004KT 14/05 A2991 RMK A01 T01370050  RH  055%=      5-min Rain = 0
KMC4 120044Z 28004KT 14/05 A2991 RMK A01 T01370049  RH  055%=      5-min Rain = 0
KMC4 120045Z 29004KT 14/05 A2992 RMK A01 T01370049  RH  055%=      5-min Rain = 0
KMC4 120046Z 29004KT 14/05 A2992 RMK A01 T01370049  RH  055%=      5-min Rain = 0
KMC4 120047Z 29005KT 14/05 A2992 RMK A01 T01370049  RH  055%=      5-min Rain = 0
KMC4 120048Z 29005KT 14/05 A2992 RMK A01 T01370049  RH  055%=      5-min Rain = 0
KMC4 120049Z 28004KT 14/05 A2992 RMK A01 T01370048  RH  055%=      5-min Rain = 0
KMC4 120050Z 27004KT 14/05 A2992 RMK A01 T01370048  RH  055%=      5-min Rain = 0
KMC4 120051Z 26004KT 14/05 A2992 RMK A01 T01360047  RH  055%=      5-min Rain = 0
KMC4 120052Z 26004KT 14/05 A2991 RMK A01 T01360047  RH  055%=      5-min Rain = 0
KMC4 120053Z 26004KT 14/05 A2992 RMK A01 T01360047  RH  055%=      5-min Rain = 0
KMC4 120054Z 25004KT 14/05 A2992 RMK A01 T01370048  RH  055%=      5-min Rain = 0
KMC4 120055Z 25004KT 14/05 A2992 RMK A01 T01360049  RH  056%=      5-min Rain = 0
KMC4 120056Z 26003KT 14/05 A2992 RMK A01 T01360051  RH  056%=      5-min Rain = 0
KMC4 120057Z 28003KT 14/05 A2992 RMK A01 T01350052  RH  057%=      5-min Rain = 0
KMC4 120058Z 30002KT 13/05 A2992 RMK A01 T01340050  RH  057%=      5-min Rain = 0
KMC4 120059Z 29003KT 13/05 A2992 RMK A01 T01330049  RH  057%=      5-min Rain = 0
KMC4 120100Z 28003KT 13/05 A2992 RMK A01 T01320048  RH  057%=      5-min Rain = 0
KMC4 120101Z 28003KT 13/05 A2992 RMK A01 T01320047  RH  056%=      5-min Rain = 0
KMC4 120102Z 28003KT 13/05 A2992 RMK A01 T01320048  RH  056%=      5-min Rain = 0
KMC4 120103Z 28003KT 13/05 A2992 RMK A01 T01320048  RH  057%=      5-min Rain = 0
KMC4 120104Z 29003KT 13/05 A2992 RMK A01 T01320048  RH  057%=      5-min Rain = 0
KMC4 120105Z 29003KT 13/05 A2992 RMK A01 T01320047  RH  056%=      5-min Rain = 0
KMC4 120106Z 29004KT 13/05 A2992 RMK A01 T01320047  RH  056%=      5-min Rain = 0
KMC4 120107Z 29003KT 13/05 A2992 RMK A01 T01320047  RH  057%=      5-min Rain = 0
KMC4 120108Z 29003KT 13/05 A2992 RMK A01 T01310047  RH  057%=      5-min Rain = 0
KMC4 120109Z 29003KT 13/05 A2992 RMK A01 T01320047  RH  057%=      5-min Rain = 0
KMC4 120110Z 29003KT 13/05 A2992 RMK A01 T01310048  RH  057%=      5-min Rain = 0
KMC4 120111Z 29003KT 13/05 A2992 RMK A01 T01310047  RH  057%=      5-min Rain = 0
KMC4 120112Z 29003KT 13/05 A2992 RMK A01 T01310047  RH  057%=      5-min Rain = 0
KMC4 120113Z 29003KT 13/05 A2992 RMK A01 T01310047  RH  057%=      5-min Rain = 0
KMC4 120114Z 29003KT 13/05 A2992 RMK A01 T01310047  RH  057%=      5-min Rain = 0
KMC4 120115Z 29003KT 13/05 A2992 RMK A01 T01300047  RH  057%=      5-min Rain = 0
KMC4 120116Z 29003KT 13/05 A2992 RMK A01 T01310047  RH  057%=      5-min Rain = 0
KMC4 120117Z 30002KT 13/05 A2992 RMK A01 T01300047  RH  057%=      5-min Rain = 0
KMC4 120118Z 32003KT 13/05 A2992 RMK A01 T01310047  RH  057%=      5-min Rain = 0
KMC4 120119Z 31002KT 13/05 A2992 RMK A01 T01310047  RH  057%=      5-min Rain = 0
KMC4 120120Z 28003KT 13/05 A2992 RMK A01 T01310047  RH  057%=      5-min Rain = 0
KMC4 120121Z 28002KT 13/05 A2992 RMK A01 T01300046  RH  057%=      5-min Rain = 0
KMC4 120122Z 29003KT 13/05 A2993 RMK A01 T01300047  RH  057%=      5-min Rain = 0
KMC4 120123Z 27002KT 13/05 A2993 RMK A01 T01300047  RH  057%=      5-min Rain = 0
KMC4 120124Z 28002KT 13/05 A2993 RMK A01 T01290048  RH  058%=      5-min Rain = 0
KMC4 120125Z 28002KT 13/05 A2993 RMK A01 T01290047  RH  058%=      5-min Rain = 0
KMC4 120126Z 29003KT 13/05 A2993 RMK A01 T01290047  RH  057%=      5-min Rain = 0
KMC4 120127Z 30003KT 13/05 A2993 RMK A01 T01290046  RH  057%=      5-min Rain = 0
KMC4 120128Z 31003KT 13/05 A2993 RMK A01 T01290046  RH  057%=      5-min Rain = 0
KMC4 120129Z 31003KT 13/05 A2993 RMK A01 T01290047  RH  057%=      5-min Rain = 0
KMC4 120130Z 30003KT 13/05 A2993 RMK A01 T01290048  RH  058%=      5-min Rain = 0
KMC4 120131Z 30003KT 13/05 A2993 RMK A01 T01280047  RH  058%=      5-min Rain = 0
KMC4 120132Z 30003KT 13/05 A2993 RMK A01 T01280046  RH  057%=      5-min Rain = 0
KMC4 120133Z 30003KT 13/05 A2993 RMK A01 T01280046  RH  057%=      5-min Rain = 0
KMC4 120134Z 29003KT 13/05 A2993 RMK A01 T01280045  RH  057%=      5-min Rain = 0
KMC4 120135Z 29003KT 13/05 A2993 RMK A01 T01280045  RH  057%=      5-min Rain = 0
KMC4 120136Z 29003KT 13/05 A2993 RMK A01 T01280045  RH  057%=      5-min Rain = 0
KMC4 120137Z 28003KT 13/05 A2993 RMK A01 T01280045  RH  057%=      5-min Rain = 0
KMC4 120138Z 28003KT 13/05 A2993 RMK A01 T01280045  RH  057%=      5-min Rain = 0
KMC4 120139Z 27002KT 13/05 A2993 RMK A01 T01280046  RH  057%=      5-min Rain = 0
KMC4 120140Z 27002KT 13/05 A2993 RMK A01 T01270046  RH  058%=      5-min Rain = 0
KMC4 120141Z 27002KT 13/05 A2993 RMK A01 T01270047  RH  058%=      5-min Rain = 0
KMC4 120142Z 26002KT 13/05 A2993 RMK A01 T01260050  RH  060%=      5-min Rain = 0
KMC4 120143Z 25002KT 12/05 A2993 RMK A01 T01240052  RH  061%=      5-min Rain = 0
KMC4 120144Z 25003KT 12/06 A2993 RMK A01 T01220056  RH  064%=      5-min Rain = 0
KMC4 120145Z 25003KT 12/06 A2993 RMK A01 T01190062  RH  068%=      5-min Rain = 0
KMC4 120146Z 24003KT 12/06 A2993 RMK A01 T01160058  RH  068%=      5-min Rain = 0
KMC4 120147Z 25003KT 11/06 A2993 RMK A01 T01140055  RH  067%=      5-min Rain = 0
KMC4 120148Z 26003KT 11/06 A2993 RMK A01 T01120055  RH  068%=      5-min Rain = 0
KMC4 120149Z 26002KT 11/06 A2993 RMK A01 T01100055  RH  068%=      5-min Rain = 0
KMC4 120150Z 25002KT 11/06 A2993 RMK A01 T01100055  RH  069%=      5-min Rain = 0
KMC4 120151Z 25002KT 11/06 A2994 RMK A01 T01090055  RH  069%=      5-min Rain = 0
KMC4 120152Z 27002KT 11/06 A2994 RMK A01 T01090056  RH  070%=      5-min Rain = 0
KMC4 120153Z 27002KT 11/06 A2994 RMK A01 T01080055  RH  069%=      5-min Rain = 0
KMC4 120154Z 27001KT 11/05 A2994 RMK A01 T01080049  RH  067%=      5-min Rain = 0
KMC4 120155Z 28001KT 11/05 A2994 RMK A01 T01100047  RH  065%=      5-min Rain = 0
KMC4 120156Z 30001KT 11/05 A2994 RMK A01 T01110047  RH  064%=      5-min Rain = 0
KMC4 120157Z 31002KT 11/05 A2994 RMK A01 T01130046  RH  064%=      5-min Rain = 0
KMC4 120158Z 31002KT 11/05 A2994 RMK A01 T01140046  RH  063%=      5-min Rain = 0
KMC4 120159Z 31002KT 12/05 A2994 RMK A01 T01150046  RH  063%=      5-min Rain = 0
KMC4 120200Z 32002KT 12/05 A2994 RMK A01 T01150046  RH  063%=      5-min Rain = 0
KMC4 120201Z 32002KT 12/05 A2994 RMK A01 T01150046  RH  062%=      5-min Rain = 0
KMC4 120202Z 32002KT 12/05 A2994 RMK A01 T01160046  RH  062%=      5-min Rain = 0
KMC4 120203Z 32002KT 12/05 A2994 RMK A01 T01160046  RH  062%=      5-min Rain = 0
KMC4 120204Z 31002KT 12/05 A2994 RMK A01 T01160045  RH  062%=      5-min Rain = 0
KMC4 120205Z 31002KT 12/05 A2994 RMK A01 T01160045  RH  062%=      5-min Rain = 0
KMC4 120206Z 32002KT 12/05 A2994 RMK A01 T01160045  RH  062%=      5-min Rain = 0
KMC4 120207Z 31002KT 12/04 A2994 RMK A01 T01160044  RH  061%=      5-min Rain = 0
KMC4 120208Z 31003KT 12/04 A2994 RMK A01 T01160044  RH  061%=      5-min Rain = 0
KMC4 120209Z 30003KT 12/05 A2994 RMK A01 T01150045  RH  062%=      5-min Rain = 0
KMC4 120210Z 30003KT 12/05 A2994 RMK A01 T01150045  RH  062%=      5-min Rain = 0
KMC4 120211Z 30003KT 12/05 A2994 RMK A01 T01150045  RH  062%=      5-min Rain = 0
KMC4 120212Z 31003KT 11/05 A2994 RMK A01 T01140045  RH  062%=      5-min Rain = 0
KMC4 120213Z 30003KT 11/04 A2994 RMK A01 T01140044  RH  062%=      5-min Rain = 0
KMC4 120214Z 29002KT 11/04 A2994 RMK A01 T01140044  RH  062%=      5-min Rain = 0
KMC4 120215Z 30002KT 11/05 A2994 RMK A01 T01140045  RH  062%=      5-min Rain = 0
KMC4 120216Z 29002KT 11/05 A2994 RMK A01 T01140045  RH  062%=      5-min Rain = 0
KMC4 120217Z 29002KT 11/04 A2994 RMK A01 T01140044  RH  062%=      5-min Rain = 0
KMC4 120218Z 29002KT 11/04 A2994 RMK A01 T01130044  RH  062%=      5-min Rain = 0
KMC4 120219Z 28003KT 11/04 A2994 RMK A01 T01140044  RH  062%=      5-min Rain = 0
KMC4 120220Z 28002KT 11/04 A2994 RMK A01 T01130043  RH  062%=      5-min Rain = 0
KMC4 120221Z 27003KT 11/04 A2994 RMK A01 T01130043  RH  062%=      5-min Rain = 0
KMC4 120222Z 26003KT 11/04 A2994 RMK A01 T01140042  RH  062%=      5-min Rain = 0
KMC4 120223Z 26003KT 11/04 A2994 RMK A01 T01130042  RH  062%=      5-min Rain = 0
KMC4 120224Z 26003KT 11/04 A2994 RMK A01 T01140043  RH  062%=      5-min Rain = 0
KMC4 120225Z 26003KT 11/04 A2994 RMK A01 T01130043  RH  062%=      5-min Rain = 0
KMC4 120226Z 26003KT 11/05 A2994 RMK A01 T01130045  RH  063%=      5-min Rain = 0
KMC4 120227Z 25004KT 11/05 A2994 RMK A01 T01120047  RH  064%=      5-min Rain = 0
KMC4 120228Z 25003KT 11/06 A2994 RMK A01 T01110055  RH  068%=      5-min Rain = 0
KMC4 120229Z 24004KT 11/06 A2994 RMK A01 T01090055  RH  069%=      5-min Rain = 0
KMC4 120230Z 25004KT 11/05 A2994 RMK A01 T01070051  RH  068%=      5-min Rain = 0
KMC4 120231Z 25004KT 11/05 A2995 RMK A01 T01050050  RH  069%=      5-min Rain = 0
KMC4 120232Z 25005KT 10/05 A2995 RMK A01 T01040048  RH  068%=      5-min Rain = 0
KMC4 120233Z 25005KT 10/05 A2995 RMK A01 T01040047  RH  068%=      5-min Rain = 0
KMC4 120234Z 25004KT 10/05 A2995 RMK A01 T01030047  RH  068%=      5-min Rain = 0
KMC4 120235Z 26004KT 10/05 A2995 RMK A01 T01030050  RH  069%=      5-min Rain = 0
KMC4 120236Z 26004KT 10/05 A2995 RMK A01 T01020047  RH  068%=      5-min Rain = 0
KMC4 120237Z 26004KT 10/05 A2995 RMK A01 T01030046  RH  068%=      5-min Rain = 0
KMC4 120238Z 27004KT 10/05 A2995 RMK A01 T01030046  RH  068%=      5-min Rain = 0
KMC4 120239Z 27004KT 10/05 A2995 RMK A01 T01040046  RH  067%=      5-min Rain = 0
KMC4 120240Z 27004KT 10/05 A2995 RMK A01 T01040046  RH  067%=      5-min Rain = 0
KMC4 120241Z 27004KT 10/05 A2995 RMK A01 T01040046  RH  067%=      5-min Rain = 0
KMC4 120242Z 27004KT 11/05 A2995 RMK A01 T01050045  RH  067%=      5-min Rain = 0
KMC4 120243Z 27005KT 11/05 A2995 RMK A01 T01050045  RH  066%=      5-min Rain = 0
KMC4 120244Z 27005KT 11/04 A2995 RMK A01 T01050044  RH  066%=      5-min Rain = 0
KMC4 120245Z 27005KT 11/04 A2995 RMK A01 T01050044  RH  066%=      5-min Rain = 0
KMC4 120246Z 27005KT 11/04 A2995 RMK A01 T01050044  RH  066%=      5-min Rain = 0
KMC4 120247Z 28006KT 11/05 A2995 RMK A01 T01050045  RH  066%=      5-min Rain = 0
KMC4 120248Z 28005KT 11/05 A2995 RMK A01 T01050045  RH  066%=      5-min Rain = 0
KMC4 120249Z 27005KT 11/05 A2995 RMK A01 T01050045  RH  067%=      5-min Rain = 0
KMC4 120250Z 27005KT 10/05 A2995 RMK A01 T01040045  RH  067%=      5-min Rain = 0
KMC4 120251Z 27005KT 10/05 A2995 RMK A01 T01030045  RH  067%=      5-min Rain = 0
KMC4 120252Z 28004KT 10/04 A2995 RMK A01 T01020044  RH  067%=      5-min Rain = 0
KMC4 120253Z 27004KT 10/05 A2995 RMK A01 T01020045  RH  068%=      5-min Rain = 0
KMC4 120254Z 28004KT 10/05 A2995 RMK A01 T01010045  RH  068%=      5-min Rain = 0
KMC4 120255Z 29004KT 10/04 A2995 RMK A01 T01000044  RH  068%=      5-min Rain = 0
KMC4 120256Z 29005KT 10/04 A2995 RMK A01 T00990044  RH  068%=      5-min Rain = 0
KMC4 120257Z 29004KT 10/04 A2995 RMK A01 T00990044  RH  069%=      5-min Rain = 0
KMC4 120258Z 29004KT 10/04 A2995 RMK A01 T00980044  RH  069%=      5-min Rain = 0
KMC4 120259Z 28004KT 10/05 A2996 RMK A01 T00980045  RH  069%=      5-min Rain = 0
KMC4 120300Z 28004KT 10/04 A2996 RMK A01 T00980044  RH  069%=      5-min Rain = 0
KMC4 120301Z 28004KT 10/04 A2996 RMK A01 T00980044  RH  069%=      5-min Rain = 0
KMC4 120302Z 28004KT 10/04 A2996 RMK A01 T00980044  RH  069%=      5-min Rain = 0
KMC4 120303Z 29004KT 10/04 A2996 RMK A01 T00980044  RH  069%=      5-min Rain = 0
KMC4 120304Z 29005KT 10/04 A2996 RMK A01 T00980044  RH  069%=      5-min Rain = 0
KMC4 120305Z 29005KT 10/04 A2996 RMK A01 T00980044  RH  069%=      5-min Rain = 0
KMC4 120306Z 30005KT 10/05 A2996 RMK A01 T00990045  RH  069%=      5-min Rain = 0
KMC4 120307Z 31006KT 10/05 A2996 RMK A01 T00990045  RH  069%=      5-min Rain = 0
KMC4 120308Z 31006KT 10/05 A2996 RMK A01 T00990047  RH  070%=      5-min Rain = 0
KMC4 120309Z 32006KT 10/05 A2996 RMK A01 T00980048  RH  071%=      5-min Rain = 0
KMC4 120310Z 33006KT 10/05 A2996 RMK A01 T00970047  RH  071%=      5-min Rain = 0
KMC4 120311Z 33006KT 10/05 A2997 RMK A01 T00970048  RH  071%=      5-min Rain = 0
KMC4 120312Z 33007KT 10/05 A2997 RMK A01 T00970048  RH  071%=      5-min Rain = 0
KMC4 120313Z 31010KT 10/04 A2997 RMK A01 T00980044  RH  069%=      5-min Rain = 0
KMC4 120314Z 31006KT 10/04 A2997 RMK A01 T01030043  RH  066%=      5-min Rain = 0
KMC4 120315Z 30006KT 11/04 A2997 RMK A01 T01050042  RH  065%=      5-min Rain = 0
KMC4 120316Z 29006KT 11/04 A2997 RMK A01 T01060040  RH  064%=      5-min Rain = 0
KMC4 120317Z 28006KT 11/04 A2997 RMK A01 T01070041  RH  064%=      5-min Rain = 0
KMC4 120318Z 28007KT 11/04 A2997 RMK A01 T01070043  RH  065%=      5-min Rain = 0
KMC4 120319Z 28006KT 10/04 A2997 RMK A01 T01040043  RH  066%=      5-min Rain = 0
KMC4 120320Z 28007KT 10/05 A2997 RMK A01 T01020045  RH  068%=      5-min Rain = 0
KMC4 120321Z 27006KT 10/05 A2997 RMK A01 T01010047  RH  069%=      5-min Rain = 0
KMC4 120322Z 27005KT 10/05 A2997 RMK A01 T01000048  RH  070%=      5-min Rain = 0
KMC4 120323Z 27005KT 10/05 A2997 RMK A01 T01000048  RH  070%=      5-min Rain = 0
KMC4 120324Z 27005KT 10/05 A2997 RMK A01 T00990046  RH  069%=      5-min Rain = 0
KMC4 120325Z 27005KT 10/05 A2997 RMK A01 T01000046  RH  069%=      5-min Rain = 0
KMC4 120326Z 26005KT 10/05 A2997 RMK A01 T01000047  RH  070%=      5-min Rain = 0
KMC4 120327Z 26005KT 10/05 A2997 RMK A01 T00990048  RH  070%=      5-min Rain = 0
KMC4 120328Z 27004KT 10/05 A2997 RMK A01 T00980047  RH  071%=      5-min Rain = 0
KMC4 120329Z 27004KT 10/05 A2997 RMK A01 T00960048  RH  072%=      5-min Rain = 0
KMC4 120330Z 27005KT 10/05 A2998 RMK A01 T00950050  RH  073%=      5-min Rain = 0
KMC4 120331Z 27005KT 10/05 A2998 RMK A01 T00950050  RH  074%=      5-min Rain = 0
KMC4 120332Z 26005KT 09/05 A2998 RMK A01 T00940049  RH  074%=      5-min Rain = 0
KMC4 120333Z 27004KT 09/05 A2998 RMK A01 T00930048  RH  074%=      5-min Rain = 0
KMC4 120334Z 27005KT 09/05 A2998 RMK A01 T00930048  RH  074%=      5-min Rain = 0
KMC4 120335Z 26006KT 09/05 A2998 RMK A01 T00930048  RH  074%=      5-min Rain = 0
KMC4 120336Z 25007KT 09/05 A2998 RMK A01 T00920047  RH  073%=      5-min Rain = 0
KMC4 120337Z 26008KT 09/05 A2998 RMK A01 T00920048  RH  074%=      5-min Rain = 0
KMC4 120338Z 26007KT 09/05 A2998 RMK A01 T00900048  RH  075%=      5-min Rain = 0
KMC4 120339Z 26006KT 09/05 A2998 RMK A01 T00890048  RH  075%=      5-min Rain = 0
KMC4 120340Z 27006KT 09/05 A2998 RMK A01 T00880047  RH  075%=      5-min Rain = 0
KMC4 120341Z 27006KT 09/05 A2998 RMK A01 T00880047  RH  075%=      5-min Rain = 0
KMC4 120342Z 28006KT 09/05 A2998 RMK A01 T00880047  RH  076%=      5-min Rain = 0
KMC4 120343Z 28005KT 09/05 A2999 RMK A01 T00880047  RH  075%=      5-min Rain = 0
KMC4 120344Z 28005KT 09/05 A2999 RMK A01 T00890047  RH  075%=      5-min Rain = 0
KMC4 120345Z 28005KT 09/05 A2999 RMK A01 T00890047  RH  075%=      5-min Rain = 0
KMC4 120346Z 28004KT 09/05 A2999 RMK A01 T00890045  RH  074%=      5-min Rain = 0
KMC4 120347Z 28004KT 09/04 A2999 RMK A01 T00890043  RH  073%=      5-min Rain = 0
KMC4 120348Z 28005KT 09/04 A2999 RMK A01 T00910043  RH  072%=      5-min Rain = 0
KMC4 120349Z 27004KT 09/04 A2999 RMK A01 T00910044  RH  073%=      5-min Rain = 0
KMC4 120350Z 26004KT 09/05 A2999 RMK A01 T00910046  RH  073%=      5-min Rain = 0
KMC4 120351Z 26005KT 09/05 A2999 RMK A01 T00900046  RH  074%=      5-min Rain = 0
KMC4 120352Z 26006KT 09/05 A2999 RMK A01 T00870047  RH  076%=      5-min Rain = 0
KMC4 120353Z 26005KT 09/05 A2999 RMK A01 T00850046  RH  076%=      5-min Rain = 0
KMC4 120354Z 26005KT 08/05 A30 RMK A01 T00840047  RH  077%=      5-min Rain = 0
KMC4 120355Z 27005KT 08/05 A30 RMK A01 T00840048  RH  078%=      5-min Rain = 0
KMC4 120356Z 27005KT 08/05 A30 RMK A01 T00840047  RH  078%=      5-min Rain = 0
KMC4 120357Z 28004KT 08/05 A30 RMK A01 T00840047  RH  077%=      5-min Rain = 0
KMC4 120358Z 27003KT 08/05 A30 RMK A01 T00840046  RH  077%=      5-min Rain = 0
KMC4 120359Z 28003KT 08/05 A30 RMK A01 T00840046  RH  077%=      5-min Rain = 0
KMC4 120400Z 29003KT 08/05 A2999 RMK A01 T00840045  RH  076%=      5-min Rain = 0
KMC4 120401Z 28003KT 09/04 A2999 RMK A01 T00850044  RH  075%=      5-min Rain = 0
KMC4 120402Z 29002KT 09/04 A2999 RMK A01 T00850043  RH  075%=      5-min Rain = 0
KMC4 120403Z 28002KT 09/04 A2999 RMK A01 T00850043  RH  075%=      5-min Rain = 0
KMC4 120404Z 30002KT 09/04 A2999 RMK A01 T00860042  RH  074%=      5-min Rain = 0
KMC4 120405Z 27001KT 09/04 A2999 RMK A01 T00860041  RH  073%=      5-min Rain = 0
KMC4 120406Z 29001KT 09/04 A2999 RMK A01 T00860041  RH  073%=      5-min Rain = 0
KMC4 120407Z 31002KT 09/04 A2999 RMK A01 T00860040  RH  073%=      5-min Rain = 0
KMC4 120408Z 26002KT 09/04 A2999 RMK A01 T00870040  RH  072%=      5-min Rain = 0
KMC4 120409Z 26003KT 09/04 A30 RMK A01 T00880042  RH  073%=      5-min Rain = 0
KMC4 120410Z 30004KT 09/04 A30 RMK A01 T00880043  RH  073%=      5-min Rain = 0
KMC4 120411Z 29004KT 09/04 A30 RMK A01 T00880042  RH  073%=      5-min Rain = 0
KMC4 120412Z 30003KT 09/04 A30 RMK A01 T00890041  RH  072%=      5-min Rain = 0
KMC4 120413Z 30004KT 09/04 A30 RMK A01 T00900041  RH  071%=      5-min Rain = 0
KMC4 120414Z 29002KT 09/04 A2999 RMK A01 T00900041  RH  071%=      5-min Rain = 0
KMC4 120415Z 29003KT 09/04 A30 RMK A01 T00910040  RH  071%=      5-min Rain = 0
KMC4 120416Z 28003KT 09/04 A30 RMK A01 T00910040  RH  071%=      5-min Rain = 0
KMC4 120417Z 25004KT 09/04 A30 RMK A01 T00920041  RH  071%=      5-min Rain = 0
KMC4 120418Z 24006KT 09/04 A30 RMK A01 T00900040  RH  071%=      5-min Rain = 0
KMC4 120419Z 24007KT 09/04 A30 RMK A01 T00870040  RH  072%=      5-min Rain = 0
KMC4 120420Z 25008KT 08/04 A30 RMK A01 T00840040  RH  074%=      5-min Rain = 0
KMC4 120421Z 26008KT 08/04 A30 RMK A01 T00830040  RH  074%=      5-min Rain = 0
KMC4 120422Z 26007KT 08/04 A30 RMK A01 T00830039  RH  074%=      5-min Rain = 0
KMC4 120423Z 28005KT 08/04 A30 RMK A01 T00840040  RH  074%=      5-min Rain = 0
KMC4 120424Z 30005KT 09/04 A30 RMK A01 T00850040  RH  073%=      5-min Rain = 0
KMC4 120425Z 31005KT 09/04 A30 RMK A01 T00850040  RH  073%=      5-min Rain = 0
KMC4 120426Z 31006KT 09/04 A30 RMK A01 T00860039  RH  073%=      5-min Rain = 0
KMC4 120427Z 32006KT 09/04 A30 RMK A01 T00870039  RH  072%=      5-min Rain = 0
KMC4 120428Z 31006KT 09/04 A30 RMK A01 T00900039  RH  071%=      5-min Rain = 0
KMC4 120429Z 35005KT 09/04 A30 RMK A01 T00910040  RH  070%=      5-min Rain = 0
KMC4 120430Z 34006KT 09/04 A30 RMK A01 T00930038  RH  068%=      5-min Rain = 0
KMC4 120431Z 32007KT 10/04 A30 RMK A01 T00980039  RH  067%=      5-min Rain = 0
KMC4 120432Z 30007KT 10/04 A30 RMK A01 T01000040  RH  066%=      5-min Rain = 0
KMC4 120433Z 30007KT 10/04 A3001 RMK A01 T01020040  RH  065%=      5-min Rain = 0
KMC4 120434Z 29007KT 10/04 A3001 RMK A01 T01040040  RH  065%=      5-min Rain = 0
KMC4 120435Z 27006KT 10/04 A3001 RMK A01 T01040042  RH  065%=      5-min Rain = 0
KMC4 120436Z 27005KT 10/04 A3001 RMK A01 T01020043  RH  067%=      5-min Rain = 0
KMC4 120437Z 27005KT 10/04 A3001 RMK A01 T00990043  RH  068%=      5-min Rain = 0
KMC4 120438Z 27005KT 10/04 A3001 RMK A01 T00960043  RH  070%=      5-min Rain = 0
KMC4 120439Z 27005KT 09/04 A3001 RMK A01 T00930044  RH  071%=      5-min Rain = 0
KMC4 120440Z 28005KT 09/04 A3001 RMK A01 T00910043  RH  072%=      5-min Rain = 0
KMC4 120441Z 28006KT 09/04 A3001 RMK A01 T00910043  RH  072%=      5-min Rain = 0
KMC4 120442Z 28005KT 09/04 A3001 RMK A01 T00900043  RH  072%=      5-min Rain = 0
KMC4 120443Z 28005KT 09/04 A3001 RMK A01 T00900043  RH  072%=      5-min Rain = 0
KMC4 120444Z 28005KT 09/04 A3001 RMK A01 T00890043  RH  073%=      5-min Rain = 0
KMC4 120445Z 28005KT 09/04 A3001 RMK A01 T00890041  RH  072%=      5-min Rain = 0
KMC4 120446Z 28005KT 09/04 A3001 RMK A01 T00890041  RH  072%=      5-min Rain = 0
KMC4 120447Z 28004KT 09/04 A3001 RMK A01 T00890041  RH  072%=      5-min Rain = 0
KMC4 120448Z 27004KT 09/04 A3001 RMK A01 T00890041  RH  072%=      5-min Rain = 0
KMC4 120449Z 27004KT 09/04 A3001 RMK A01 T00880042  RH  073%=      5-min Rain = 0
KMC4 120450Z 27004KT 09/04 A3001 RMK A01 T00880043  RH  073%=      5-min Rain = 0
KMC4 120451Z 26004KT 09/04 A3001 RMK A01 T00870042  RH  074%=      5-min Rain = 0
KMC4 120452Z 26004KT 09/04 A3001 RMK A01 T00860043  RH  074%=      5-min Rain = 0
KMC4 120453Z 26003KT 09/04 A3001 RMK A01 T00850043  RH  075%=      5-min Rain = 0
KMC4 120454Z 26003KT 09/04 A3001 RMK A01 T00850043  RH  075%=      5-min Rain = 0
KMC4 120455Z 25003KT 08/04 A3001 RMK A01 T00840042  RH  075%=      5-min Rain = 0
KMC4 120456Z 26003KT 08/04 A3001 RMK A01 T00840042  RH  075%=      5-min Rain = 0
KMC4 120457Z 26002KT 08/04 A3001 RMK A01 T00840042  RH  075%=      5-min Rain = 0
KMC4 120458Z 26002KT 08/04 A3001 RMK A01 T00830042  RH  075%=      5-min Rain = 0
KMC4 120459Z 26003KT 08/04 A3001 RMK A01 T00830042  RH  075%=      5-min Rain = 0
KMC4 120500Z 26002KT 08/04 A3001 RMK A01 T00830042  RH  076%=      5-min Rain = 0
KMC4 120501Z 27003KT 08/04 A3001 RMK A01 T00820042  RH  076%=      5-min Rain = 0
KMC4 120502Z 27003KT 08/04 A3001 RMK A01 T00820042  RH  076%=      5-min Rain = 0
KMC4 120503Z 27003KT 08/04 A3001 RMK A01 T00820041  RH  076%=      5-min Rain = 0
KMC4 120504Z 27003KT 08/04 A3001 RMK A01 T00820042  RH  076%=      5-min Rain = 0
KMC4 120505Z 27004KT 08/04 A3001 RMK A01 T00820041  RH  076%=      5-min Rain = 0
KMC4 120506Z 27004KT 08/04 A3002 RMK A01 T00820041  RH  076%=      5-min Rain = 0
KMC4 120507Z 27004KT 08/04 A3002 RMK A01 T00810041  RH  076%=      5-min Rain = 0
KMC4 120508Z 26004KT 08/04 A3002 RMK A01 T00800040  RH  076%=      5-min Rain = 0
KMC4 120509Z 26004KT 08/04 A3002 RMK A01 T00800041  RH  077%=      5-min Rain = 0
KMC4 120510Z 26004KT 08/04 A3002 RMK A01 T00790042  RH  077%=      5-min Rain = 0
KMC4 120511Z 26004KT 08/04 A3002 RMK A01 T00770041  RH  078%=      5-min Rain = 0
KMC4 120512Z 25004KT 08/04 A3002 RMK A01 T00760041  RH  078%=      5-min Rain = 0
KMC4 120513Z 25004KT 08/04 A3002 RMK A01 T00750041  RH  079%=      5-min Rain = 0
KMC4 120514Z 25004KT 08/04 A3002 RMK A01 T00750041  RH  079%=      5-min Rain = 0
KMC4 120515Z 25004KT 07/04 A3002 RMK A01 T00740040  RH  079%=      5-min Rain = 0
KMC4 120516Z 24004KT 07/04 A3002 RMK A01 T00740040  RH  079%=      5-min Rain = 0
KMC4 120517Z 24005KT 07/04 A3002 RMK A01 T00730040  RH  079%=      5-min Rain = 0
KMC4 120518Z 24005KT 07/04 A3002 RMK A01 T00730040  RH  079%=      5-min Rain = 0
KMC4 120519Z 25005KT 07/04 A3002 RMK A01 T00720039  RH  080%=      5-min Rain = 0
KMC4 120520Z 25005KT 07/04 A3002 RMK A01 T00720039  RH  080%=      5-min Rain = 0
KMC4 120521Z 25005KT 07/04 A3002 RMK A01 T00710039  RH  080%=      5-min Rain = 0
KMC4 120522Z 25005KT 07/04 A3002 RMK A01 T00710039  RH  081%=      5-min Rain = 0
KMC4 120523Z 26005KT 07/04 A3002 RMK A01 T00700039  RH  081%=      5-min Rain = 0
KMC4 120524Z 25004KT 07/04 A3002 RMK A01 T00700040  RH  081%=      5-min Rain = 0
KMC4 120525Z 25004KT 07/04 A3002 RMK A01 T00700040  RH  082%=      5-min Rain = 0
KMC4 120526Z 26004KT 07/04 A3002 RMK A01 T00700040  RH  082%=      5-min Rain = 0
KMC4 120527Z 26004KT 07/04 A3002 RMK A01 T00700041  RH  082%=      5-min Rain = 0
KMC4 120528Z 25004KT 07/04 A3001 RMK A01 T00700040  RH  081%=      5-min Rain = 0
KMC4 120529Z 25004KT 07/04 A3001 RMK A01 T00700040  RH  081%=      5-min Rain = 0
KMC4 120530Z 25005KT 07/04 A3001 RMK A01 T00700040  RH  081%=      5-min Rain = 0
KMC4 120531Z 26004KT 07/04 A3002 RMK A01 T00690040  RH  082%=      5-min Rain = 0
KMC4 120532Z 26004KT 07/04 A3002 RMK A01 T00690040  RH  082%=      5-min Rain = 0
KMC4 120533Z 25005KT 07/04 A3002 RMK A01 T00690040  RH  082%=      5-min Rain = 0
KMC4 120534Z 25005KT 07/04 A3002 RMK A01 T00690040  RH  082%=      5-min Rain = 0
KMC4 120535Z 25005KT 07/04 A3002 RMK A01 T00690040  RH  082%=      5-min Rain = 0
KMC4 120536Z 25005KT 07/04 A3002 RMK A01 T00690040  RH  082%=      5-min Rain = 0
KMC4 120537Z 25005KT 07/04 A3002 RMK A01 T00690040  RH  082%=      5-min Rain = 0
KMC4 120538Z 25005KT 07/04 A3002 RMK A01 T00690040  RH  082%=      5-min Rain = 0
KMC4 120539Z 25005KT 07/04 A3002 RMK A01 T00690040  RH  082%=      5-min Rain = 0
KMC4 120540Z 25005KT 07/04 A3002 RMK A01 T00680039  RH  082%=      5-min Rain = 0
KMC4 120541Z 25005KT 07/04 A3002 RMK A01 T00680038  RH  082%=      5-min Rain = 0
KMC4 120542Z 25004KT 07/04 A3002 RMK A01 T00670038  RH  082%=      5-min Rain = 0
KMC4 120543Z 25004KT 07/04 A3002 RMK A01 T00670038  RH  082%=      5-min Rain = 0
KMC4 120544Z 25004KT 07/04 A3002 RMK A01 T00670038  RH  082%=      5-min Rain = 0
KMC4 120545Z 24003KT 07/04 A3002 RMK A01 T00670038  RH  082%=      5-min Rain = 0
KMC4 120546Z 23004KT 07/04 A3002 RMK A01 T00660038  RH  082%=      5-min Rain = 0
KMC4 120547Z 23004KT 07/04 A3002 RMK A01 T00660039  RH  083%=      5-min Rain = 0
KMC4 120548Z 22004KT 07/04 A3002 RMK A01 T00660040  RH  083%=      5-min Rain = 0
KMC4 120549Z 22003KT 07/04 A3002 RMK A01 T00660039  RH  083%=      5-min Rain = 0
KMC4 120550Z 22003KT 07/04 A3002 RMK A01 T00660039  RH  083%=      5-min Rain = 0
KMC4 120551Z 22004KT 07/04 A3002 RMK A01 T00650039  RH  083%=      5-min Rain = 0
KMC4 120552Z 23004KT 07/04 A3002 RMK A01 T00650038  RH  083%=      5-min Rain = 0
KMC4 120553Z 22003KT 07/04 A3002 RMK A01 T00650038  RH  083%=      5-min Rain = 0
KMC4 120554Z 21003KT 06/04 A3002 RMK A01 T00640037  RH  083%=      5-min Rain = 0
KMC4 120555Z 21002KT 06/04 A3002 RMK A01 T00640036  RH  082%=      5-min Rain = 0
KMC4 120556Z 21003KT 06/04 A3002 RMK A01 T00640036  RH  083%=      5-min Rain = 0
KMC4 120557Z 20002KT 06/04 A3002 RMK A01 T00630036  RH  083%=      5-min Rain = 0
KMC4 120558Z 20002KT 06/04 A3002 RMK A01 T00630036  RH  083%=      5-min Rain = 0
KMC4 120559Z 20002KT 06/04 A3002 RMK A01 T00630036  RH  083%=      5-min Rain = 0

Page generated in 0.1231 seconds.